GFSWCAN_850_dewp_018.txt.gz
Dewpoint
2 1 1 0 -0 -2 -3 -4 -3 -2 2 3 2 2 -1 -2 -1 3 3 4 2 4 5 4 2 2 2 2 3 4 3 3 -0 -0 -1 -0 -0 1 1 0 3 3 3 1 -1 -2 -0 -4 -0 0 -0 -4 -2 0
2 1 1 1 -0 -1 -3 -4 -3 -3 0 3 4 4 2 -1 1 1 4 4 2 2 5 5 4 3 1 1 2 4 2 3 1 1 -2 -1 2 1 0 2 0 2 -0 1 -0 0 -4 -2 -0 -1 -2 -3 -2 -1
2 2 1 1 -0 -1 -2 -3 -4 -4 -2 2 4 3 2 2 2 2 2 2 1 4 5 5 6 5 3 1 1 2 1 2 1 -1 -0 -1 -1 -0 2 2 2 1 -1 -0 -0 -2 -1 -3 -3 -2 -1 -1 -1 -0
2 1 1 1 -0 -0 -2 -3 -4 -5 -4 -4 1 4 3 -0 -0 -1 -0 0 -1 1 3 5 5 6 5 3 2 1 0 0 0 -0 1 0 -1 1 -0 -0 1 1 0 0 0 -0 -1 -2 -2 -2 -2 -2 -1 -1
2 2 1 0 1 -1 -2 -2 -3 -4 -5 -5 -5 -1 3 2 1 1 1 -1 -3 -4 2 5 4 5 6 5 4 3 2 0 1 2 1 0 -1 0 1 0 1 1 0 1 1 -4 -3 -4 -4 -2 -1 0 0 1
2 2 1 1 0 -0 -1 -2 -3 -3 -4 -5 -5 -4 -2 0 1 0 0 2 -1 -3 -1 3 4 5 4 5 5 4 3 3 3 3 3 2 1 1 3 3 1 -1 -2 -3 -2 -3 -2 -1 0 0 1 2 2 3
2 2 1 1 1 0 -1 -1 -2 -2 -3 -4 -5 -5 -4 -4 -4 -6 -4 2 2 -1 -2 3 3 5 5 5 5 6 5 5 5 4 3 3 4 2 0 2 0 -0 -1 -1 -1 1 2 1 1 1 2 2 3 3
3 3 2 2 2 1 -0 -0 -0 -1 -2 -3 -4 -5 -5 -5 -4 -2 1 3 3 -0 -1 0 1 4 5 6 6 5 6 6 6 4 4 3 3 2 3 3 3 3 3 2 2 2 2 2 2 3 3 3 1 -5
4 4 3 2 2 2 1 1 1 -0 -1 -2 -2 -3 -3 -3 -1 3 4 3 3 -0 1 1 1 1 5 5 5 5 5 3 4 4 3 4 2 4 3 1 1 1 2 2 3 3 3 3 2 1 1 -3 -5 -0
4 4 4 4 3 2 2 3 3 2 1 0 -0 -0 1 2 3 3 3 3 3 4 4 1 2 2 4 4 3 3 2 2 4 2 4 2 3 2 -1 -1 -0 0 1 2 3 2 0 -3 -3 -3 -1 -0 -1 -2
2 3 4 4 4 4 4 4 3 3 3 2 1 2 4 4 2 2 3 2 3 3 3 3 3 2 3 3 2 2 2 1 4 2 3 3 2 -2 -1 -1 -0 0 1 1 0 -1 -1 -1 -1 -2 -2 -3 -6 -6
0 1 2 2 3 3 4 4 4 3 2 2 2 4 3 3 3 1 1 2 2 3 2 3 3 3 3 3 2 2 2 1 3 1 2 2 -1 -1 -1 -1 -1 -1 -1 -1 -1 -1 -2 -2 -3 -4 -4 -6 -8 -11
1 2 2 3 3 3 4 4 4 3 3 3 3 3 2 2 3 1 4 3 2 1 2 2 2 3 3 3 2 1 3 3 1 2 3 1 -0 -1 -1 -2 -2 -2 -2 -2 -3 -4 -5 -8 -11 -12 -14 -18 -17 -15
0 0 1 2 3 3 4 4 4 3 3 3 3 2 1 1 0 -0 0 0 -1 0 1 1 1 1 1 1 0 3 1 0 2 2 1 -0 -1 -2 -1 -2 -4 -5 -9 -10 -9 -10 -12 -13 -14 -14 -14 -14 -13 -12
-1 -1 -1 -1 0 1 2 3 3 3 1 1 -0 -0 -1 -2 -1 -1 -1 -0 -0 0 1 1 0 1 -0 0 -1 -0 -2 -2 -2 -3 -1 -1 -2 -2 -2 -4 -6 -7 -7 -7 -6 -7 -7 -10 -12 -13 -12 -12 -13 -13
-3 -5 -5 -4 -3 -2 -0 1 1 -3 -3 -2 -2 -1 -1 -1 -1 -1 -1 -1 -0 -0 0 0 -0 -0 -1 -0 -1 -1 -1 -3 -4 -2 -1 -1 -1 -1 -1 -3 -3 -4 -5 -5 -6 -9 -10 -9 -9 -8 -8 -8 -6 -6
-5 -5 -6 -5 -5 -3 -3 -4 -5 -3 -2 -3 -1 -1 -1 -1 -1 -1 -0 -0 -0 -0 -1 -1 -3 -2 -2 -1 -1 -1 -2 -2 -1 -1 -1 -1 -1 -2 -3 -6 -8 -9 -9 -8 -7 -7 -6 -6 -5 -6 -7 -8 -8 -8
-9 -7 -9 -9 -8 -7 -6 -5 -3 -3 -2 -2 -1 -1 -1 -1 -1 -1 -1 -1 -1 -1 -1 -2 -2 -4 -4 -3 -4 -2 -1 -2 -2 -2 -2 -1 -2 -5 -6 -7 -8 -7 -7 -8 -7 -7 -7 -8 -8 -7 -7 -7 -8 -7
-15 -16 -17 -11 -10 -9 -5 -3 -3 -4 -2 -2 -2 -2 -2 -2 -2 -2 -2 -2 -3 -3 -3 -3 -7 -5 -5 -2 -1 -1 -2 -3 -3 -2 -2 -4 -5 -6 -7 -7 -7 -6 -5 -6 -7 -8 -8 -8 -9 -10 -12 -13 -14 -14
-17 -16 -15 -14 -14 -7 -4 -3 -3 -4 -4 -3 -2 -2 -3 -3 -3 -3 -3 -3 -3 -3 -2 -6 -5 -3 -3 -5 -5 -4 -2 -1 -2 -4 -5 -6 -6 -7 -7 -6 -7 -7 -9 -11 -12 -13 -14 -16 -17 -17 -15 -14 -13 -13
-19 -21 -21 -25 -12 -6 -4 -4 -5 -5 -4 -4 -3 -4 -4 -4 -4 -4 -3 -3 -3 -3 -4 -2 -2 -3 -3 -4 -3 -4 -4 -5 -5 -5 -6 -6 -5 -5 -7 -9 -10 -11 -11 -12 -13 -15 -16 -15 -14 -14 -15 -15 -15 -15
-17 -18 -19 -16 -10 -5 -4 -5 -4 -4 -5 -3 -3 -4 -4 -4 -4 -4 -3 -4 -4 -4 -3 -3 -2 -4 -4 -4 -5 -5 -5 -6 -6 -7 -6 -6 -6 -8 -9 -9 -10 -11 -13 -14 -14 -14 -14 -15 -16 -16 -16 -17 -17 -16
-15 -16 -12 -8 -7 -5 -4 -4 -3 -4 -6 -4 -3 -4 -4 -4 -4 -5 -4 -4 -5 -5 -4 -3 -3 -2 -2 -3 -4 -4 -6 -6 -7 -7 -7 -8 -9 -10 -11 -11 -12 -13 -14 -14 -14 -15 -16 -18 -20 -21 -21 -20 -19 -18
-13 -9 -6 -5 -5 -6 -5 -4 -4 -4 -4 -4 -7 -5 -6 -5 -4 -5 -5 -6 -5 -5 -4 -4 -4 -3 -4 -4 -4 -5 -6 -7 -8 -9 -10 -10 -10 -9 -11 -13 -14 -14 -14 -15 -18 -21 -24 -24 -24 -23 -23 -21 -19 -18
-9 -6 -6 -6 -6 -6 -8 -9 -6 -5 -9 -11 -7 -9 -5 -5 -7 -6 -7 -6 -7 -6 -5 -5 -5 -5 -5 -6 -7 -7 -8 -8 -8 -8 -8 -9 -11 -13 -14 -14 -14 -16 -21 -24 -25 -25 -24 -24 -23 -23 -21 -19 -17 -17
-8 -6 -7 -6 -6 -6 -10 -9 -8 -7 -10 -8 -7 -5 -5 -7 -8 -6 -7 -8 -8 -8 -7 -7 -6 -7 -8 -8 -8 -9 -9 -9 -10 -11 -12 -13 -14 -14 -15 -18 -22 -24 -24 -24 -23 -23 -23 -23 -22 -21 -20 -18 -17 -17
-9 -9 -5 -5 -5 -5 -5 -4 -5 -5 -5 -5 -6 -6 -6 -5 -6 -9 -10 -10 -9 -9 -9 -9 -8 -8 -8 -9 -9 -10 -10 -12 -14 -14 -14 -15 -16 -20 -23 -24 -24 -23 -23 -22 -22 -22 -22 -21 -20 -19 -19 -18 -18 -18
-5 -5 -8 -5 -5 -5 -5 -6 -8 -6 -5 -6 -6 -6 -7 -8 -10 -12 -12 -11 -11 -10 -10 -10 -10 -10 -10 -11 -11 -12 -13 -16 -17 -17 -19 -22 -22 -22 -23 -22 -22 -22 -22 -22 -22 -21 -21 -20 -20 -19 -19 -19 -19 -19
-5 -6 -5 -6 -5 -5 -6 -6 -6 -6 -6 -6 -8 -10 -11 -12 -12 -12 -12 -12 -12 -12 -11 -11 -12 -12 -12 -12 -13 -16 -19 -21 -22 -22 -23 -23 -23 -23 -22 -22 -21 -21 -21 -21 -21 -21 -21 -20 -20 -19 -19 -19 -19 -19
-7 -7 -6 -7 -8 -9 -6 -7 -6 -6 -7 -7 -8 -10 -12 -13 -13 -13 -13 -13 -13 -13 -13 -13 -13 -14 -15 -18 -21 -22 -23 -23 -23 -23 -23 -23 -23 -22 -22 -21 -21 -21 -21 -21 -21 -21 -21 -21 -20 -20 -20 -20 -20 -20
-7 -6 -6 -7 -6 -6 -7 -8 -7 -7 -6 -7 -8 -9 -13 -14 -14 -14 -14 -14 -14 -14 -14 -14 -15 -20 -23 -23 -23 -23 -24 -24 -25 -25 -25 -24 -23 -22 -22 -22 -23 -23 -22 -21 -21 -21 -21 -21 -20 -20 -20 -20 -20 -20
-8 -8 -8 -10 -7 -7 -7 -8 -8 -8 -8 -8 -10 -11 -13 -14 -15 -15 -16 -15 -15 -17 -19 -22 -22 -22 -23 -24 -25 -27 -28 -29 -29 -29 -27 -26 -25 -24 -24 -24 -23 -22 -22 -21 -21 -21 -21 -21 -21 -21 -20 -20 -20 -20
-8 -9 -9 -8 -8 -7 -8 -9 -11 -10 -10 -11 -12 -13 -13 -14 -15 -16 -16 -16 -17 -20 -22 -22 -23 -24 -25 -26 -28 -29 -30 -31 -30 -28 -26 -25 -24 -23 -22 -21 -22 -22 -21 -21 -21 -21 -21 -21 -21 -21 -21 -21 -21 -21

GFSWCAN_850_dewp_024.txt.gz
Dewpoint
-2 -0 1 2 2 3 4 2 2 1 1 1 2 2 3 1 3 5 3 2 1 4 5 3 2 4 4 4 6 4 4 4 4 9 9 6 9 2 1 -1 3 4 7 8 4 9 7 -4 -1 2 -1 -1 -1 -1
1 1 3 4 4 2 2 1 0 0 1 2 2 3 3 0 4 4 4 4 3 4 7 4 2 2 2 4 5 4 5 4 3 6 7 6 7 5 5 4 0 3 2 3 1 1 -3 -3 -2 -1 -0 -1 -1 0
3 3 2 2 2 1 0 0 1 1 1 2 4 4 2 -0 4 4 3 2 3 6 6 7 7 3 2 1 1 4 4 4 2 3 4 6 8 4 8 5 3 0 -0 2 1 -3 -3 -3 -2 -2 -2 -1 -1 -1
2 2 1 1 1 1 1 2 4 4 4 4 4 3 0 -0 3 3 3 3 3 5 7 7 6 5 3 2 2 1 2 1 0 1 5 5 9 2 5 2 2 1 0 1 1 -1 -2 -2 -2 -1 -1 0 1 1
1 1 1 1 2 3 3 4 5 6 5 4 4 2 0 -0 3 3 2 2 3 2 7 7 6 6 5 3 2 1 1 1 1 3 6 8 2 4 2 3 3 -0 0 3 2 -0 -1 -1 -0 1 2 2 3 3
1 1 1 2 2 1 1 5 5 5 5 3 3 3 1 1 2 3 1 1 3 2 5 8 5 6 4 4 2 2 1 0 3 4 5 2 2 3 6 5 2 3 2 3 2 3 3 3 3 3 3 1 1 1
1 1 1 1 -0 1 1 5 6 6 5 3 3 2 2 1 3 0 2 1 1 1 1 7 7 6 5 4 4 4 4 4 5 5 4 4 4 3 4 6 2 1 1 1 2 3 3 3 2 -0 0 0 0 0
2 2 2 2 1 2 -1 2 4 6 6 6 5 5 5 4 2 2 2 0 -1 -3 -4 6 5 6 5 5 5 5 6 6 5 4 3 4 3 4 6 1 1 0 1 2 0 1 2 -1 -1 -0 0 -0 -1 -1
2 2 2 2 1 -0 2 1 -1 2 2 2 2 1 1 1 2 3 1 -1 -3 -4 3 2 7 7 4 4 4 4 5 5 4 5 5 5 4 4 1 0 0 -0 0 1 0 0 0 0 -1 -1 -1 -1 -2 -2
2 2 1 1 2 1 0 -1 0 0 -0 -2 -3 -5 -1 3 3 1 -1 -2 -3 -0 1 2 3 4 4 4 3 4 3 4 5 5 3 5 1 -1 -1 -1 -0 -0 0 1 1 -1 -1 -1 -2 -2 -2 -2 -3 -7
3 2 2 2 3 3 2 1 -1 -2 -2 -3 -1 3 3 1 -1 -0 2 3 3 4 3 2 3 3 3 4 4 2 4 4 6 4 5 5 2 -1 -1 -1 -1 -1 -0 -0 -0 -1 -2 -2 -2 -3 -5 -5 -3 -4
4 4 4 4 3 2 2 3 1 -0 -1 1 2 1 1 1 1 3 3 3 3 4 2 3 2 3 2 3 3 3 4 3 6 2 5 5 -0 -1 -2 -2 -2 -1 -1 -1 -2 -3 -3 -3 -3 -4 -5 -9 -11 -13
4 4 4 4 4 4 3 3 3 1 1 0 0 0 1 1 5 6 5 4 4 1 1 2 2 2 2 2 2 4 5 5 2 4 4 1 -2 -2 -2 -2 -2 -3 -4 -4 -5 -9 -11 -13 -13 -13 -11 -10 -10 -10
3 3 4 4 4 4 3 3 3 2 2 2 1 3 3 4 1 2 3 2 -0 1 1 2 1 2 2 2 2 5 1 1 4 5 3 -0 -2 -2 -2 -2 -3 -5 -8 -7 -7 -7 -8 -10 -10 -10 -10 -9 -9 -9
1 1 2 3 4 4 4 4 3 2 2 0 -1 1 1 -2 -1 -1 -1 -1 -0 1 2 2 2 2 2 2 2 2 3 3 2 2 -1 -1 -2 -2 -2 -3 -5 -7 -5 -4 -6 -9 -10 -9 -8 -8 -8 -8 -8 -8
-1 0 0 1 2 2 2 4 3 3 0 -1 -1 -0 -1 -1 -1 -1 -1 -1 -0 0 1 1 1 3 2 3 3 4 3 2 1 -0 -2 -2 -2 -2 -3 -5 -4 -3 -5 -7 -8 -7 -7 -7 -7 -6 -6 -9 -13 -16
-6 -4 -3 -2 -0 -1 -0 -2 -5 -3 -2 -1 -1 -1 -1 -1 -1 -1 -1 -1 -0 0 1 1 3 2 0 1 1 0 2 0 -1 -2 -2 -2 -2 -2 -2 -3 -3 -6 -7 -7 -6 -6 -6 -7 -9 -12 -15 -15 -16 -17
-10 -9 -6 -5 -6 -6 -8 -6 -4 -3 -2 -2 -1 -2 -2 -1 -1 -2 -2 -2 -1 -0 -0 0 -1 1 2 1 1 -0 -1 -1 -1 -1 -2 -2 -2 -2 -3 -5 -7 -6 -6 -6 -6 -7 -10 -13 -14 -14 -15 -16 -17 -17
-23 -17 -12 -10 -11 -12 -5 -4 -4 -2 -2 -2 -2 -2 -2 -2 -2 -2 -3 -3 -3 -2 -2 -2 0 -1 -0 -1 -0 -2 -2 -2 -2 -2 -2 -2 -2 -3 -5 -6 -6 -6 -6 -7 -10 -12 -13 -14 -15 -16 -17 -19 -23 -25
-32 -25 -21 -14 -15 -8 -4 -4 -5 -4 -3 -3 -3 -3 -3 -3 -3 -3 -3 -3 -4 -2 -2 -2 -2 -2 -2 -2 -2 -2 -2 -1 -2 -3 -3 -4 -5 -5 -5 -5 -6 -7 -10 -12 -12 -13 -14 -15 -17 -20 -24 -27 -27 -27
-32 -33 -30 -26 -13 -7 -4 -4 -5 -5 -4 -3 -4 -4 -4 -5 -5 -4 -3 -4 -3 -3 -3 -4 -4 -4 -3 -4 -3 -2 -2 -3 -4 -4 -5 -5 -5 -6 -6 -6 -9 -11 -12 -12 -13 -15 -17 -20 -24 -27 -27 -26 -26 -25
-29 -31 -28 -19 -9 -6 -4 -4 -4 -6 -4 -4 -3 -4 -3 -4 -3 -3 -4 -2 -3 -4 -4 -4 -4 -4 -4 -4 -4 -5 -4 -4 -3 -4 -4 -5 -6 -6 -7 -9 -11 -11 -12 -14 -16 -20 -24 -26 -26 -26 -25 -25 -25 -23
-26 -26 -21 -14 -9 -7 -5 -4 -4 -4 -4 -3 -3 -4 -4 -4 -4 -6 -4 -4 -5 -6 -6 -5 -5 -5 -5 -5 -5 -5 -5 -5 -5 -5 -6 -6 -7 -8 -10 -10 -10 -13 -16 -20 -24 -26 -26 -25 -25 -24 -24 -23 -23 -22
-20 -15 -11 -8 -7 -5 -6 -5 -5 -5 -4 -5 -4 -4 -4 -4 -5 -5 -5 -6 -8 -8 -7 -7 -7 -7 -8 -8 -8 -8 -8 -7 -7 -7 -8 -9 -9 -9 -10 -12 -15 -19 -24 -25 -25 -25 -24 -24 -23 -23 -23 -22 -22 -21
-12 -7 -8 -6 -6 -6 -6 -6 -6 -7 -6 -6 -5 -4 -5 -5 -5 -6 -7 -9 -8 -9 -9 -8 -8 -8 -9 -9 -9 -9 -9 -9 -9 -9 -10 -10 -10 -12 -13 -18 -23 -25 -25 -25 -24 -24 -23 -23 -23 -22 -22 -21 -21 -20
-6 -6 -6 -6 -6 -6 -6 -5 -5 -5 -6 -5 -5 -6 -5 -5 -6 -7 -10 -9 -10 -11 -10 -10 -10 -9 -10 -10 -10 -10 -10 -10 -10 -10 -11 -11 -12 -17 -23 -24 -24 -24 -25 -24 -24 -23 -22 -22 -22 -22 -21 -21 -20 -20
-6 -6 -6 -6 -6 -6 -5 -6 -5 -5 -5 -5 -5 -5 -5 -6 -7 -10 -10 -12 -11 -11 -11 -10 -10 -10 -10 -11 -11 -11 -11 -12 -12 -12 -14 -20 -23 -24 -25 -25 -25 -24 -24 -23 -22 -22 -22 -23 -22 -21 -21 -21 -20 -20
-6 -6 -6 -6 -6 -6 -6 -6 -6 -6 -6 -6 -6 -6 -6 -7 -9 -12 -13 -12 -12 -12 -12 -11 -11 -12 -12 -12 -12 -13 -13 -15 -20 -23 -24 -24 -24 -24 -24 -25 -25 -23 -23 -23 -23 -23 -23 -22 -22 -21 -21 -21 -20 -20
-6 -7 -6 -8 -7 -6 -6 -6 -7 -6 -7 -6 -6 -8 -11 -13 -13 -14 -13 -13 -13 -13 -13 -13 -13 -13 -13 -14 -17 -21 -22 -22 -23 -24 -25 -25 -25 -24 -27 -25 -25 -25 -25 -25 -24 -23 -22 -22 -21 -21 -21 -21 -21 -20
-6 -8 -7 -8 -7 -6 -6 -7 -7 -7 -8 -8 -9 -11 -13 -15 -14 -14 -14 -14 -14 -14 -14 -14 -14 -15 -19 -21 -22 -23 -24 -25 -26 -28 -28 -28 -28 -28 -27 -26 -26 -25 -23 -22 -22 -22 -22 -21 -21 -21 -21 -21 -21 -21
-7 -7 -7 -7 -7 -7 -8 -7 -7 -8 -8 -9 -10 -12 -14 -16 -15 -15 -15 -15 -15 -15 -15 -17 -21 -22 -23 -24 -25 -25 -25 -25 -29 -30 -31 -31 -29 -28 -26 -25 -22 -21 -21 -21 -21 -21 -21 -21 -21 -21 -21 -21 -21 -21
-9 -9 -8 -8 -7 -8 -9 -8 -9 -8 -10 -11 -13 -13 -14 -15 -16 -16 -16 -16 -16 -18 -20 -21 -22 -23 -23 -23 -24 -25 -27 -27 -29 -31 -33 -31 -27 -24 -22 -21 -21 -21 -21 -21 -21 -21 -21 -21 -21 -21 -21 -21 -22 -23
-9 -9 -10 -9 -9 -9 -10 -11 -12 -11 -11 -12 -14 -14 -15 -15 -16 -17 -17 -17 -17 -20 -21 -21 -20 -19 -21 -24 -25 -26 -26 -27 -28 -28 -26 -24 -22 -21 -21 -21 -22 -22 -21 -21 -21 -21 -21 -21 -21 -22 -22 -24 -25 -26

GFSWCAN_850_dewp_027.txt.gz
Dewpoint
-8 -6 -6 -6 -4 -2 -2 -1 1 1 1 2 4 4 3 3 3 5 9 1 0 3 3 3 -1 -1 -2 1 7 4 5 5 4 8 10 7 9 4 2 -1 4 5 7 8 7 8 7 -5 -3 -0 0 -4 -4 -2
-5 -6 -4 -2 -1 -0 -0 1 1 2 3 4 3 2 3 3 3 7 8 1 4 4 7 7 5 2 2 1 1 4 1 4 4 5 9 9 9 6 5 4 -1 3 2 3 2 2 -2 -4 -5 -4 -2 -2 -2 -2
-4 -2 -1 -0 -0 1 2 2 4 3 2 2 2 3 3 2 4 7 8 3 2 7 7 5 6 3 3 4 5 4 6 4 4 5 6 8 9 6 9 5 3 0 -1 1 1 -5 -5 -5 -4 -3 -2 -2 -1 -1
1 2 2 2 3 2 2 2 2 2 2 2 3 3 2 2 5 7 8 4 5 6 9 7 6 7 2 2 3 6 5 4 5 5 8 7 9 3 7 3 2 1 -0 -0 0 -2 -4 -3 -2 -1 1 1 2 2
2 2 2 3 4 3 2 1 1 2 2 2 2 2 1 2 5 6 5 4 3 4 8 7 7 6 6 5 4 1 4 4 5 7 7 9 4 5 5 4 4 -0 -0 3 3 1 2 1 2 3 3 3 2 2
4 5 5 5 5 5 5 4 4 2 2 2 3 3 1 2 5 4 4 3 2 4 8 9 7 7 6 6 5 5 5 5 4 6 8 3 3 4 8 5 2 2 2 2 2 3 3 4 2 1 1 1 1 0
3 2 2 3 6 7 5 5 5 4 4 4 4 3 1 3 4 6 2 2 2 2 6 8 7 6 6 6 6 6 6 6 5 6 7 5 4 4 7 6 3 1 1 2 2 3 3 2 1 1 1 1 -0 -1
1 2 2 4 7 7 6 5 5 4 4 4 4 2 1 1 4 3 2 3 2 1 6 8 7 7 6 7 7 6 7 7 6 5 5 6 4 6 7 2 1 1 2 2 1 1 0 1 1 1 0 -1 -1 -1
2 2 2 5 5 5 6 6 4 4 4 4 3 3 3 5 5 2 2 1 1 2 5 6 7 7 5 5 5 6 6 7 5 6 5 5 5 6 2 1 1 1 1 1 1 1 1 1 -0 -1 -1 -2 -2 -2
2 2 2 2 5 5 5 5 6 6 6 5 4 4 4 4 2 1 1 2 3 5 4 4 5 6 5 5 5 5 5 6 6 5 4 6 3 0 0 1 1 1 1 1 0 -0 -1 -1 -1 -1 -2 -3 -4 -3
2 1 1 2 2 2 3 3 0 -1 0 -2 0 4 4 2 1 0 3 5 4 6 3 3 4 4 4 5 4 4 5 5 6 5 5 6 3 -0 -1 -0 0 -0 0 1 -0 -1 -1 -1 -2 -3 -3 -2 -3 -5
3 3 2 2 3 2 1 -0 -1 -3 -3 -1 2 2 2 2 2 5 4 4 5 5 2 4 3 3 3 4 3 4 4 3 7 3 6 5 0 -1 -1 -1 -0 -1 -1 -1 -1 -2 -3 -3 -3 -4 -5 -6 -12 -10
4 4 3 2 2 2 2 1 0 0 -1 -1 -1 -0 3 3 6 4 6 4 4 2 2 3 3 3 3 3 3 4 6 6 2 5 4 2 -1 -1 -1 -1 -2 -3 -3 -3 -4 -5 -6 -8 -12 -11 -10 -11 -9 -9
4 4 3 3 3 3 2 1 2 1 1 1 2 4 4 4 2 2 3 2 -0 1 2 3 2 3 2 3 4 4 2 3 5 6 5 0 -1 -2 -1 -2 -3 -5 -6 -5 -5 -5 -9 -10 -11 -10 -10 -9 -9 -9
3 4 4 3 3 3 3 3 2 3 2 1 1 2 1 -1 -1 -1 -1 -0 -0 1 2 3 3 3 3 4 4 3 3 5 4 4 2 -1 -2 -1 -1 -2 -4 -5 -5 -3 -4 -10 -10 -9 -6 -6 -7 -8 -9 -12
1 1 2 2 3 4 4 3 2 1 -1 -1 -1 0 -1 -0 -0 -1 -1 -1 -0 1 2 2 3 4 3 4 3 5 5 4 2 1 -1 -1 -2 -2 -2 -3 -4 -3 -3 -4 -4 -7 -7 -6 -6 -7 -9 -13 -15 -15
-1 -1 -0 -0 1 1 -0 1 -1 -1 -1 -1 -1 -1 -1 -1 -1 -2 -1 -1 0 0 1 1 4 3 1 3 3 3 3 1 -0 -1 -1 -1 -2 -2 -3 -3 -3 -4 -4 -3 -4 -5 -6 -7 -9 -13 -12 -13 -15 -14
-4 -4 -3 -4 -4 -6 -8 -5 -3 -1 -1 -1 -1 -2 -2 -2 -1 -2 -2 -1 -0 0 0 1 1 3 4 3 2 0 -1 -1 -2 -2 -2 -2 -2 -2 -2 -3 -3 -4 -4 -5 -6 -7 -9 -12 -9 -10 -12 -15 -16 -13
-11 -9 -8 -9 -11 -12 -5 -5 -2 -2 -2 -2 -2 -2 -2 -2 -2 -3 -3 -2 -2 -1 -0 -1 2 2 2 0 -0 -1 -1 -1 -2 -2 -2 -2 -2 -3 -3 -4 -4 -5 -5 -6 -7 -8 -9 -12 -12 -13 -15 -21 -17 -13
-22 -18 -14 -13 -17 -9 -3 -3 -3 -3 -2 -2 -2 -2 -2 -2 -3 -3 -4 -3 -1 -1 -2 -2 -2 -3 -3 -3 -2 -2 -1 -1 -2 -3 -3 -3 -3 -4 -4 -5 -5 -6 -7 -9 -11 -11 -10 -10 -12 -18 -22 -26 -16 -15
-30 -28 -23 -23 -14 -6 -3 -3 -4 -3 -3 -3 -3 -3 -4 -3 -3 -2 -2 -2 -2 -3 -3 -3 -3 -4 -4 -4 -3 -2 -2 -1 -2 -2 -3 -4 -5 -5 -6 -7 -7 -8 -8 -8 -9 -11 -14 -15 -20 -26 -25 -18 -21 -15
-28 -28 -24 -17 -11 -6 -3 -3 -4 -4 -5 -4 -4 -5 -4 -3 -3 -3 -2 -3 -4 -5 -5 -5 -5 -5 -5 -6 -6 -5 -4 -4 -3 -3 -4 -5 -6 -7 -8 -8 -9 -9 -10 -12 -14 -18 -20 -24 -26 -26 -24 -21 -18 -15
-29 -26 -20 -15 -11 -6 -4 -4 -4 -4 -4 -4 -4 -4 -4 -4 -4 -4 -4 -5 -6 -6 -6 -6 -7 -7 -7 -7 -7 -6 -7 -7 -7 -7 -7 -8 -8 -9 -9 -9 -10 -11 -11 -15 -23 -25 -25 -25 -23 -24 -20 -19 -16 -16
-17 -15 -12 -7 -5 -4 -5 -5 -6 -5 -4 -4 -5 -4 -5 -5 -4 -5 -5 -7 -7 -7 -7 -7 -6 -6 -7 -8 -8 -8 -9 -8 -9 -9 -10 -10 -10 -10 -10 -10 -11 -13 -18 -23 -25 -25 -24 -23 -23 -19 -18 -17 -17 -17
-9 -6 -5 -5 -5 -5 -5 -5 -6 -6 -5 -5 -5 -5 -5 -4 -4 -6 -6 -8 -8 -9 -9 -8 -8 -8 -8 -9 -10 -10 -9 -9 -9 -9 -10 -11 -11 -11 -11 -12 -18 -24 -25 -25 -23 -24 -22 -23 -21 -19 -20 -18 -18 -18
-5 -5 -5 -5 -5 -5 -5 -5 -5 -5 -5 -5 -5 -5 -5 -5 -6 -7 -9 -9 -9 -10 -11 -11 -9 -9 -11 -11 -11 -11 -11 -11 -11 -10 -11 -11 -12 -14 -17 -16 -15 -15 -24 -24 -25 -24 -22 -20 -22 -23 -21 -18 -19 -19
-5 -5 -5 -6 -5 -5 -5 -5 -5 -6 -6 -5 -5 -6 -5 -5 -6 -9 -10 -11 -11 -12 -12 -11 -12 -12 -12 -13 -12 -12 -12 -12 -12 -12 -15 -21 -23 -24 -25 -23 -23 -24 -26 -26 -25 -25 -25 -25 -24 -20 -20 -19 -19 -20
-6 -6 -5 -5 -5 -5 -6 -6 -6 -6 -6 -6 -6 -6 -6 -6 -8 -10 -12 -13 -13 -13 -12 -12 -12 -12 -12 -12 -13 -13 -14 -18 -22 -23 -24 -22 -23 -24 -24 -26 -28 -29 -28 -28 -28 -27 -26 -24 -21 -20 -20 -20 -21 -21
-6 -6 -6 -7 -6 -6 -6 -7 -7 -7 -7 -7 -6 -7 -9 -12 -14 -13 -14 -13 -13 -13 -13 -14 -14 -14 -14 -16 -20 -21 -22 -23 -19 -22 -18 -16 -16 -17 -23 -28 -28 -28 -28 -26 -23 -22 -22 -22 -21 -21 -21 -21 -21 -22
-6 -6 -7 -7 -7 -7 -6 -6 -6 -7 -8 -9 -9 -11 -12 -14 -15 -14 -14 -14 -14 -14 -14 -14 -14 -16 -17 -15 -16 -24 -25 -24 -24 -26 -27 -23 -22 -27 -29 -23 -22 -22 -22 -21 -21 -21 -21 -21 -21 -22 -22 -22 -22 -22
-6 -6 -7 -7 -7 -7 -8 -8 -8 -8 -9 -10 -11 -10 -12 -15 -16 -15 -15 -15 -15 -15 -16 -16 -19 -19 -22 -24 -22 -21 -18 -22 -27 -27 -29 -30 -30 -28 -21 -21 -21 -20 -21 -21 -21 -21 -21 -21 -22 -22 -22 -23 -23 -22
-7 -7 -8 -8 -8 -8 -9 -8 -8 -7 -9 -9 -11 -13 -14 -13 -14 -16 -16 -16 -17 -17 -19 -17 -17 -21 -21 -20 -22 -24 -26 -26 -26 -26 -26 -25 -24 -23 -22 -21 -20 -21 -21 -22 -21 -22 -23 -22 -22 -23 -23 -23 -22 -23
-8 -8 -9 -9 -9 -9 -8 -9 -9 -10 -10 -11 -12 -13 -13 -13 -15 -17 -17 -17 -18 -18 -20 -20 -18 -17 -19 -23 -25 -25 -25 -24 -24 -23 -22 -22 -21 -21 -21 -21 -21 -21 -22 -22 -22 -22 -23 -23 -22 -22 -22 -23 -25 -25

GFSWCAN_850_dewp_030.txt.gz
Dewpoint
-6 -6 -4 -4 -3 -3 -5 -10 -8 -5 -4 -2 -0 -1 -1 0 2 3 4 7 7 6 2 1 -2 -2 -0 4 8 5 5 5 8 10 11 10 11 7 4 1 6 7 9 8 9 9 8 -5 -4 -0 2 -2 -3 -2
-5 -7 -8 -5 -4 -5 -9 -8 -5 -3 -1 -0 1 1 -0 -2 2 4 5 5 7 8 7 5 2 0 -0 2 5 5 4 4 5 7 10 11 8 7 8 7 -2 5 4 8 6 7 -0 -6 -4 -5 -3 -2 -2 -1
-7 -6 -5 -5 -5 -5 -4 -3 -2 -1 -1 0 1 2 -0 2 4 4 5 7 8 7 7 4 6 2 -0 3 4 5 5 3 3 4 8 10 7 9 8 9 5 -0 -0 4 3 -4 -4 -4 -4 -3 -1 1 1 1
-4 -4 -4 -3 -3 -3 -2 -1 -1 1 1 1 1 3 4 4 3 3 5 7 8 4 8 8 6 4 2 4 4 5 5 4 5 6 10 7 9 5 10 6 6 2 0 0 0 -1 -1 -1 2 3 3 3 3 3
-4 -2 -3 -3 -2 -0 -0 1 1 1 2 2 4 4 4 3 3 5 6 8 7 4 8 7 7 5 2 3 4 5 6 5 7 8 6 10 5 8 7 7 8 1 1 7 6 3 3 3 2 2 2 2 1 1
1 2 2 2 2 1 2 2 2 3 4 3 3 3 3 3 4 6 7 5 5 6 6 9 7 7 6 6 5 6 6 5 5 8 8 5 4 7 9 9 2 2 2 2 3 3 3 3 2 2 2 1 1 0
3 3 4 3 3 3 3 3 3 3 3 3 3 3 3 4 6 7 5 4 4 4 6 8 7 7 7 7 7 6 6 6 6 6 8 6 4 6 7 9 2 1 1 2 2 3 2 2 2 1 1 0 -0 -1
3 5 6 6 6 5 3 2 2 2 2 3 3 3 3 4 6 6 3 3 2 3 6 7 6 7 7 7 7 7 8 7 7 6 6 7 6 7 9 3 2 1 2 1 1 1 2 1 1 0 -0 -1 -1 -1
5 5 6 6 7 6 6 5 3 3 3 3 4 5 4 5 6 3 2 3 2 1 7 5 7 7 6 6 6 6 7 7 6 6 7 6 6 7 3 2 1 2 2 2 2 1 1 0 -0 -1 -1 -1 -1 -2
4 5 5 6 6 6 6 6 6 5 5 5 5 4 5 5 3 3 2 3 2 4 5 6 6 7 5 5 5 5 5 6 6 6 5 7 4 1 1 1 1 1 1 1 1 0 -0 -1 -1 -2 -3 -2 -2 -2
3 3 4 4 4 5 5 5 5 5 4 5 4 5 4 3 3 2 3 5 3 6 3 4 5 6 5 6 5 5 5 5 6 6 6 5 4 1 1 1 1 1 1 1 0 -0 -1 -2 -2 -2 -3 -3 -7 -9
3 2 3 3 2 2 3 5 5 5 4 3 3 2 1 2 3 4 5 4 5 5 3 4 4 4 4 4 4 4 4 4 7 3 6 6 2 0 0 0 0 -0 -0 -1 -1 -2 -2 -2 -3 -4 -4 -9 -8 -8
4 3 2 2 2 1 1 1 1 2 3 2 1 2 3 3 5 6 5 5 4 2 2 3 3 3 3 3 3 3 4 6 2 5 4 3 0 -0 0 -1 -1 -2 -2 -3 -3 -3 -4 -6 -6 -9 -11 -7 -4 -8
4 3 3 2 2 2 2 2 1 1 -0 1 3 3 3 3 2 1 2 2 -0 1 3 2 3 3 3 3 4 4 2 3 5 5 4 1 -0 -0 -0 -2 -3 -3 -6 -6 -5 -5 -10 -11 -10 -9 -9 -9 -9 -11
4 3 3 3 2 2 2 2 2 1 1 1 1 2 1 -1 -1 -1 -1 -0 0 1 2 3 3 3 3 3 3 2 4 5 4 4 2 -1 -1 -0 -2 -2 -4 -6 -4 -4 -5 -10 -9 -7 -7 -8 -8 -10 -14 -15
3 3 3 4 3 3 3 2 2 3 -0 -1 -1 0 -1 0 -0 -1 -1 -1 0 1 2 2 3 3 3 3 3 5 5 5 3 1 -1 -1 -1 -1 -1 -3 -5 -4 -3 -4 -7 -8 -7 -4 -5 -8 -11 -13 -14 -14
-1 -0 1 1 1 2 2 2 -1 -1 -1 -1 -1 -1 -1 -1 -2 -2 -1 -0 0 0 1 2 4 3 1 3 3 3 3 1 -0 -1 -1 -1 -1 -1 -1 -2 -2 -3 -3 -4 -4 -4 -6 -7 -9 -12 -10 -12 -13 -12
-2 -5 -5 -7 -10 -9 -3 -1 -1 -1 -1 -2 -1 -2 -2 -1 -1 -2 -1 -0 0 0 0 1 1 2 3 3 3 1 -1 -1 -1 -1 -1 -1 -2 -2 -2 -2 -3 -3 -4 -4 -5 -6 -8 -9 -9 -9 -11 -13 -14 -14
-8 -9 -9 -12 -16 -12 -5 -3 -2 -1 -2 -2 -2 -2 -2 -2 -2 -3 -1 -0 -0 0 1 1 0 0 -0 -2 -2 -1 -2 -2 -2 -2 -2 -2 -2 -2 -2 -2 -3 -4 -5 -5 -6 -7 -9 -11 -11 -12 -14 -20 -22 -17
-18 -16 -14 -15 -20 -9 -3 -3 -3 -2 -2 -2 -2 -2 -2 -2 -3 -3 -2 -2 -3 -3 -3 -2 -3 -4 -4 -4 -3 -2 -1 -2 -2 -2 -2 -2 -3 -3 -3 -4 -5 -5 -6 -7 -9 -9 -9 -9 -11 -15 -20 -24 -20 -22
-29 -27 -25 -27 -13 -5 -3 -3 -3 -2 -3 -2 -2 -4 -3 -3 -2 -2 -2 -4 -5 -3 -3 -4 -4 -5 -5 -5 -4 -3 -2 -2 -2 -2 -3 -3 -4 -4 -5 -5 -6 -6 -7 -7 -8 -10 -11 -13 -17 -24 -25 -21 -23 -20
-29 -30 -27 -20 -12 -6 -3 -3 -3 -4 -3 -3 -3 -4 -3 -3 -3 -3 -4 -6 -6 -5 -5 -6 -6 -6 -7 -6 -6 -5 -5 -4 -3 -3 -3 -4 -5 -6 -7 -8 -8 -8 -9 -9 -10 -12 -15 -20 -25 -26 -25 -22 -18 -14
-23 -21 -17 -13 -11 -6 -4 -4 -4 -5 -5 -5 -5 -5 -5 -4 -4 -4 -5 -6 -6 -7 -7 -7 -7 -7 -7 -8 -8 -7 -7 -6 -7 -7 -7 -7 -8 -8 -8 -9 -10 -11 -11 -11 -14 -19 -22 -24 -22 -23 -17 -16 -16 -15
-16 -12 -10 -5 -4 -4 -5 -5 -6 -6 -5 -6 -5 -5 -5 -5 -4 -6 -6 -7 -8 -8 -8 -8 -7 -7 -8 -9 -10 -10 -10 -9 -9 -10 -10 -9 -10 -10 -10 -10 -11 -11 -12 -17 -21 -22 -20 -19 -20 -17 -16 -18 -16 -16
-9 -6 -5 -4 -4 -5 -5 -6 -6 -6 -5 -5 -4 -4 -5 -5 -5 -6 -6 -7 -8 -9 -9 -8 -9 -9 -9 -10 -11 -11 -11 -10 -10 -10 -11 -11 -12 -12 -12 -12 -16 -21 -23 -23 -22 -23 -21 -20 -18 -18 -20 -17 -18 -18
-5 -5 -6 -6 -6 -5 -6 -6 -6 -5 -6 -5 -6 -5 -4 -4 -5 -5 -8 -8 -10 -11 -11 -11 -10 -10 -11 -12 -12 -12 -11 -12 -12 -11 -12 -12 -12 -13 -13 -14 -13 -14 -21 -24 -26 -26 -22 -20 -21 -19 -18 -18 -18 -18
-5 -5 -6 -6 -5 -5 -5 -6 -6 -5 -5 -5 -5 -5 -5 -4 -5 -8 -10 -11 -11 -12 -13 -12 -12 -12 -12 -13 -13 -12 -12 -12 -13 -15 -20 -23 -24 -24 -24 -22 -22 -23 -27 -28 -28 -28 -27 -24 -21 -20 -19 -19 -19 -19
-6 -6 -6 -6 -6 -6 -7 -7 -6 -5 -5 -7 -6 -5 -5 -7 -9 -10 -11 -12 -13 -13 -13 -13 -13 -13 -13 -13 -14 -14 -14 -15 -17 -18 -16 -15 -16 -17 -18 -21 -25 -27 -23 -22 -24 -23 -22 -21 -21 -20 -20 -20 -20 -21
-6 -6 -6 -6 -7 -7 -6 -6 -6 -6 -7 -7 -6 -6 -9 -12 -13 -13 -13 -13 -13 -12 -13 -14 -14 -14 -15 -15 -19 -21 -24 -23 -21 -21 -16 -15 -15 -16 -20 -25 -22 -21 -20 -20 -20 -20 -21 -20 -20 -21 -21 -21 -21 -21
-7 -6 -7 -7 -7 -6 -6 -7 -6 -8 -8 -8 -9 -11 -12 -14 -15 -14 -14 -14 -14 -15 -15 -15 -15 -15 -15 -15 -15 -16 -19 -20 -24 -26 -26 -25 -25 -26 -25 -20 -20 -20 -20 -20 -21 -21 -21 -21 -21 -21 -21 -21 -21 -21
-7 -7 -8 -8 -7 -7 -7 -7 -8 -8 -9 -10 -10 -10 -12 -14 -15 -16 -16 -16 -16 -15 -15 -15 -16 -17 -18 -21 -19 -19 -17 -20 -25 -26 -25 -25 -24 -22 -20 -20 -20 -21 -21 -21 -22 -22 -22 -22 -22 -22 -22 -22 -22 -22
-8 -8 -8 -8 -6 -8 -8 -8 -8 -6 -8 -8 -10 -11 -12 -11 -13 -16 -16 -16 -16 -16 -17 -17 -17 -17 -18 -19 -22 -24 -25 -25 -22 -23 -22 -22 -22 -22 -21 -21 -21 -21 -22 -22 -22 -22 -22 -22 -22 -23 -23 -23 -23 -23
-9 -9 -9 -9 -9 -8 -7 -9 -9 -9 -10 -10 -12 -12 -13 -13 -15 -17 -17 -17 -17 -17 -18 -18 -17 -17 -18 -23 -25 -24 -21 -20 -21 -22 -22 -22 -22 -22 -21 -21 -21 -21 -21 -21 -22 -22 -23 -23 -23 -23 -24 -24 -24 -24

GFSWCAN_850_dewp_033.txt.gz
Dewpoint
-6 -9 -7 -6 -6 -5 -2 -1 -1 -1 -0 -0 -1 -1 -2 -1 -0 -0 2 3 5 7 6 4 2 2 3 5 6 6 8 6 6 6 5 5 4 3 4 6 5 4 6 4 5 6 5 -2 -3 -2 2 -2 -2 -2
-7 -8 -8 -4 -4 -3 -2 -3 -5 -5 -5 -4 -3 -3 -3 -2 -2 -3 1 2 4 4 6 7 4 3 2 4 4 5 5 5 6 7 6 5 7 4 4 4 3 5 6 5 5 5 2 -4 -4 -3 -3 0 1 2
-6 -7 -7 -7 -4 -4 -5 -7 -10 -8 -6 -5 -3 -3 -3 -2 -2 -4 -1 2 3 5 5 6 6 4 5 4 2 4 5 4 5 4 7 6 6 4 4 4 3 1 1 3 2 -0 -1 -2 2 2 1 2 3 3
-6 -7 -8 -7 -4 -3 -4 -7 -8 -6 -3 -2 -2 -2 -2 -2 -1 -1 1 2 5 5 6 8 7 5 5 4 4 3 3 4 4 3 6 4 5 5 4 3 4 3 1 1 1 1 4 3 3 3 3 2 2 2
-6 -6 -7 -7 -7 -6 -5 -6 -6 -3 -2 -1 -1 -1 1 -2 -1 1 2 2 4 6 7 8 5 5 6 5 2 4 4 3 5 4 2 4 6 5 4 4 3 1 2 2 3 4 3 2 2 2 2 1 1 1
-3 -4 -3 -4 -4 -4 -5 -4 -3 -1 -1 -2 -1 -0 1 1 2 2 3 3 5 5 6 6 6 6 5 5 5 6 5 5 6 6 6 6 5 4 3 3 2 2 3 3 3 3 2 2 2 2 1 1 1 1
-3 -5 -4 -3 -2 -1 -2 -2 -2 -1 0 1 1 2 2 2 3 4 4 6 6 6 6 5 5 6 7 6 6 6 6 7 7 7 8 4 4 5 3 4 2 2 3 2 2 2 2 2 1 1 1 -0 -1 -1
2 2 1 0 0 1 0 -0 0 1 1 1 3 4 4 4 3 4 4 6 6 6 5 5 5 6 7 7 6 7 8 6 6 6 7 5 5 6 3 2 1 2 1 1 2 3 1 1 0 -0 -1 -2 -2 -2
3 3 3 3 3 2 3 2 2 2 3 3 4 4 4 3 4 5 6 2 1 2 4 4 5 6 6 6 6 6 7 4 6 3 4 4 2 4 3 2 2 2 2 2 1 1 0 0 -1 -1 -2 -2 -2 -3
5 5 4 4 4 4 4 4 4 4 4 3 4 5 6 5 4 4 2 1 1 3 3 4 6 5 5 5 4 4 4 4 5 4 4 3 2 1 1 1 2 2 2 1 1 -0 -1 -1 -1 -2 -2 -2 -2 -3
5 6 5 5 4 4 4 3 4 4 5 5 5 6 5 4 2 2 3 3 4 2 3 3 5 5 5 3 3 4 3 3 4 3 3 4 3 1 1 1 1 2 1 1 0 -0 -1 -2 -2 -2 -3 -4 -6 -13
4 5 6 7 6 5 5 5 5 5 5 5 5 4 4 4 2 2 2 2 3 3 2 3 4 4 4 4 2 3 3 2 5 3 4 4 1 1 1 0 1 1 1 -0 -1 -2 -2 -3 -3 -4 -7 -11 -11 -11
4 4 4 5 5 6 6 5 5 4 4 2 2 3 3 2 3 3 3 3 3 1 2 3 2 3 3 2 3 2 5 4 2 3 3 2 1 1 0 -0 -1 -1 -2 -2 -2 -3 -3 -4 -5 -10 -8 -7 -8 -10
3 3 3 4 4 4 4 4 3 2 1 1 2 1 2 2 0 0 1 1 -0 1 3 2 3 2 3 2 2 2 2 2 4 3 1 0 0 0 -1 -1 -2 -2 -3 -3 -3 -5 -7 -11 -11 -8 -7 -7 -10 -14
3 2 2 2 3 2 2 2 2 0 1 0 -1 1 -0 -1 -1 -1 -1 -0 -0 2 3 3 2 2 1 2 1 2 3 3 3 3 1 -0 0 -0 -1 -2 -3 -5 -5 -5 -8 -11 -11 -9 -9 -9 -9 -12 -14 -14
3 2 2 3 2 2 2 1 0 0 -1 -1 -1 -0 -0 -0 -1 -1 -1 -0 1 2 2 2 1 2 2 2 3 4 2 2 1 -0 -1 -0 -0 -1 -2 -3 -3 -4 -4 -3 -7 -7 -6 -7 -8 -9 -12 -13 -13 -13
2 -1 1 3 2 2 1 2 2 -1 -1 -1 -1 -2 -1 -1 -2 -2 -1 -0 0 1 1 1 2 2 1 2 2 1 0 -0 -1 -1 -1 -1 -1 -2 -2 -2 -3 -3 -3 -6 -7 -5 -4 -5 -9 -10 -11 -12 -13 -13
-7 -8 -8 -9 -1 1 0 -1 -1 -2 -2 -2 -2 -2 -2 -2 -2 -1 -0 -0 0 0 0 1 1 1 0 1 0 -1 -2 -2 -1 -1 -1 -1 -1 -2 -2 -2 -2 -3 -4 -5 -5 -6 -8 -9 -9 -10 -11 -13 -13 -15
-9 -9 -11 -19 -16 -10 -4 -2 -3 -2 -2 -2 -2 -2 -2 -2 -1 -1 -1 -0 -1 -0 -1 -2 -3 -2 -3 -3 -4 -3 -2 -2 -2 -2 -1 -1 -2 -2 -2 -2 -3 -3 -4 -5 -7 -8 -8 -9 -9 -11 -13 -18 -21 -20
-23 -23 -24 -25 -20 -7 -4 -3 -3 -2 -2 -2 -2 -2 -2 -2 -2 -5 -6 -5 -4 -4 -3 -3 -4 -5 -5 -6 -5 -4 -2 -2 -2 -2 -2 -2 -2 -2 -3 -3 -4 -4 -5 -6 -8 -9 -10 -10 -11 -12 -19 -22 -24 -25
-30 -29 -29 -24 -10 -4 -3 -3 -3 -3 -2 -2 -4 -4 -4 -4 -3 -5 -6 -8 -7 -4 -5 -6 -6 -7 -7 -6 -5 -5 -3 -3 -2 -2 -3 -3 -4 -4 -4 -5 -5 -6 -6 -7 -8 -9 -9 -9 -13 -21 -25 -26 -25 -21
-29 -32 -29 -20 -10 -5 -5 -3 -4 -4 -4 -3 -4 -4 -4 -4 -3 -4 -9 -8 -7 -6 -6 -7 -7 -7 -8 -8 -7 -7 -6 -5 -4 -3 -4 -4 -5 -6 -7 -7 -7 -8 -9 -9 -10 -10 -11 -13 -21 -24 -25 -24 -22 -19
-22 -20 -16 -12 -10 -8 -7 -6 -6 -6 -6 -6 -7 -5 -4 -5 -4 -5 -6 -7 -8 -8 -8 -7 -8 -9 -9 -9 -9 -8 -8 -7 -7 -7 -7 -8 -8 -8 -8 -8 -9 -9 -10 -11 -11 -12 -15 -22 -22 -23 -23 -22 -21 -20
-16 -10 -8 -5 -5 -5 -5 -6 -6 -6 -6 -6 -5 -6 -5 -5 -5 -7 -6 -8 -9 -9 -9 -8 -8 -9 -10 -10 -10 -10 -10 -10 -10 -10 -10 -9 -10 -10 -10 -11 -11 -11 -12 -13 -17 -21 -21 -22 -23 -24 -24 -23 -22 -19
-10 -6 -5 -6 -6 -6 -9 -8 -7 -6 -4 -5 -6 -7 -6 -5 -8 -6 -7 -8 -10 -11 -10 -9 -10 -10 -10 -11 -12 -11 -11 -11 -11 -11 -12 -12 -12 -12 -12 -12 -12 -14 -19 -22 -23 -25 -25 -25 -24 -25 -24 -23 -20 -19
-7 -6 -7 -7 -6 -6 -6 -6 -5 -4 -5 -6 -6 -7 -6 -5 -8 -8 -8 -10 -11 -12 -12 -11 -11 -12 -12 -12 -12 -12 -12 -12 -12 -11 -12 -12 -13 -13 -13 -14 -15 -17 -22 -25 -27 -28 -29 -29 -28 -26 -24 -21 -19 -19
-6 -6 -6 -6 -5 -6 -5 -6 -6 -6 -6 -6 -5 -5 -8 -5 -9 -9 -11 -12 -12 -13 -12 -12 -12 -13 -13 -13 -14 -14 -16 -18 -19 -19 -18 -18 -19 -20 -20 -20 -22 -24 -27 -27 -27 -28 -27 -25 -23 -22 -21 -20 -19 -20
-6 -7 -6 -7 -7 -7 -7 -6 -5 -5 -5 -6 -5 -9 -9 -9 -11 -12 -12 -12 -12 -13 -13 -13 -13 -13 -14 -14 -14 -14 -15 -16 -16 -16 -15 -16 -17 -17 -18 -23 -26 -25 -22 -21 -21 -21 -21 -20 -20 -20 -21 -21 -21 -21
-7 -7 -7 -7 -7 -8 -6 -5 -6 -7 -8 -8 -8 -10 -11 -13 -13 -13 -13 -13 -13 -13 -13 -14 -13 -14 -15 -16 -21 -23 -23 -22 -22 -22 -20 -17 -16 -20 -24 -24 -21 -20 -20 -21 -20 -20 -20 -21 -21 -21 -21 -21 -21 -21
-7 -7 -7 -8 -9 -7 -7 -8 -8 -9 -9 -9 -11 -13 -14 -15 -15 -14 -14 -14 -15 -15 -15 -15 -15 -15 -15 -15 -16 -17 -17 -20 -25 -25 -25 -24 -24 -23 -22 -21 -21 -21 -21 -20 -21 -21 -21 -21 -22 -22 -22 -22 -22 -22
-8 -8 -8 -8 -7 -8 -8 -8 -9 -9 -10 -11 -11 -12 -15 -16 -16 -16 -16 -16 -15 -15 -15 -16 -17 -19 -19 -19 -19 -20 -19 -22 -24 -23 -22 -22 -22 -22 -22 -22 -21 -21 -21 -21 -22 -21 -22 -22 -22 -22 -23 -23 -23 -23
-9 -9 -8 -9 -7 -8 -8 -9 -8 -7 -10 -10 -11 -13 -13 -13 -15 -16 -16 -16 -17 -17 -17 -17 -17 -17 -17 -21 -24 -24 -24 -23 -23 -22 -23 -23 -23 -23 -23 -22 -21 -21 -21 -21 -21 -21 -22 -22 -23 -23 -23 -23 -23 -23
-8 -9 -9 -10 -9 -7 -9 -11 -8 -9 -10 -11 -12 -12 -14 -15 -16 -17 -17 -17 -17 -18 -18 -17 -17 -17 -18 -20 -23 -23 -23 -22 -22 -22 -23 -23 -23 -23 -23 -22 -22 -22 -22 -22 -22 -22 -23 -23 -23 -23 -23 -23 -23 -23

GFSWCAN_850_dewp_036.txt.gz
Dewpoint
-3 -5 -7 -4 -4 -4 -4 -4 -4 -3 -3 -4 -4 -4 -3 -1 -0 1 2 2 2 4 4 6 3 1 0 2 6 6 6 6 5 5 5 4 2 3 4 4 3 3 4 2 4 3 2 -0 -3 -2 -1 -1 -1 -0
-7 -8 -5 -4 -3 -3 -2 -2 -1 -1 -2 -2 -2 -2 -2 -1 0 1 2 2 2 3 4 5 6 6 3 1 4 6 4 5 6 7 5 4 4 2 3 5 3 3 2 3 3 3 0 -3 -2 -1 -2 0 2 1
-6 -5 -5 -5 -5 -4 -1 -1 -1 -1 -0 -1 -1 -2 -1 1 1 1 1 2 2 2 3 6 6 7 6 1 3 4 5 4 5 4 6 5 3 2 3 3 3 1 3 4 3 3 4 3 1 1 1 1 2 2
-6 -6 -5 -4 -4 -2 -2 -4 -3 -1 -1 -0 0 -0 0 0 0 1 1 0 2 3 4 6 7 7 7 4 2 3 2 3 4 6 5 4 4 3 2 2 2 2 1 2 4 4 3 3 2 2 2 2 2 2
-7 -6 -6 -4 -3 -4 -5 -9 -8 -4 -2 -1 -1 -3 -2 -3 -2 -1 -0 1 2 5 5 5 6 6 7 4 5 4 3 3 5 4 2 3 5 4 2 2 3 1 2 2 2 3 3 3 2 2 2 1 1 1
-7 -8 -9 -6 -3 -4 -6 -10 -9 -5 -3 -3 -3 -3 -2 -2 -0 0 -0 0 1 3 5 5 4 6 8 7 5 5 5 4 4 3 6 5 6 3 2 2 2 3 2 -1 4 3 2 2 1 1 1 0 0 0
-7 -7 -7 -6 -6 -5 -7 -9 -8 -4 -3 -2 -2 -1 -1 -1 -0 0 1 2 1 1 4 4 5 7 8 8 8 8 7 7 7 7 6 4 5 3 1 3 2 3 3 3 3 2 1 1 1 1 1 0 -0 -1
-4 -5 -4 -5 -6 -5 -5 -6 -4 -3 -1 -0 -1 -1 -1 1 -0 1 3 5 5 4 4 4 6 6 6 6 6 8 7 6 6 6 6 3 5 2 3 2 2 2 3 2 2 2 2 1 0 -0 -1 -2 -3 -3
-2 -4 -5 -5 -5 -5 -4 -5 -6 -3 -1 -0 -0 0 1 3 3 1 2 5 4 4 4 3 5 6 6 5 6 6 6 4 5 2 3 3 3 3 2 2 2 2 2 1 2 2 1 0 -1 -1 -2 -3 -3 -3
2 1 -0 -1 -1 -2 -2 -3 -3 -2 1 2 2 2 4 3 2 -0 3 4 5 5 4 3 5 5 5 4 3 3 4 3 3 3 4 2 2 1 2 2 2 2 1 1 1 -0 -0 -1 -2 -2 -3 -3 -3 -4
3 3 2 1 1 0 -0 -0 -0 1 2 2 4 4 4 3 4 4 4 3 4 2 3 4 5 4 5 3 3 4 3 2 5 4 4 4 3 1 2 2 2 2 1 1 1 0 -1 -1 -2 -2 -2 -3 -5 -10
4 4 4 3 3 3 3 2 2 2 4 4 4 4 4 4 3 2 1 1 2 3 2 2 4 4 4 3 3 3 3 1 4 2 4 4 2 2 1 2 2 1 1 0 -0 -1 -1 -2 -2 -3 -4 -7 -12 -13
5 5 4 4 4 4 4 4 4 4 4 4 4 3 2 1 2 2 3 3 2 1 2 3 2 3 2 2 2 0 1 3 1 3 3 2 1 1 1 1 1 0 -0 -1 -1 -2 -2 -3 -4 -5 -11 -11 -11 -12
5 5 4 4 5 5 5 5 4 2 1 1 1 1 1 1 -0 -0 1 1 -0 1 3 3 2 2 2 2 1 3 2 1 3 3 2 0 1 0 0 -1 -1 -1 -1 -2 -2 -3 -3 -4 -8 -9 -9 -10 -12 -15
4 4 5 5 5 5 5 3 1 1 -0 -1 -0 -0 -1 -1 -1 -1 -1 -0 0 2 3 2 2 2 1 2 1 2 3 2 1 0 0 0 0 -0 -1 -1 -2 -2 -2 -3 -3 -4 -7 -10 -9 -7 -8 -12 -15 -15
3 3 3 3 3 4 4 4 1 -1 -2 -2 -2 -1 -1 -1 -1 -1 -1 -0 0 2 2 2 1 1 2 2 3 3 1 2 1 -1 -0 -0 -0 -1 -1 -2 -3 -2 -3 -6 -9 -8 -6 -9 -9 -10 -12 -13 -13 -13
3 2 2 3 2 2 1 0 -2 -3 -2 -2 -2 -2 -1 -1 -1 -1 -1 -1 0 1 1 -1 1 2 0 1 1 0 -0 -1 -2 -1 -1 -0 -1 -2 -2 -2 -3 -3 -3 -4 -4 -6 -7 -8 -10 -11 -12 -12 -12 -13
-13 -12 1 2 2 1 1 -1 -3 -3 -2 -2 -2 -2 -2 -2 -2 -2 -2 -0 0 -0 -0 -0 -1 -1 -2 -2 -2 -2 -2 -2 -2 -1 -1 -1 -1 -2 -2 -2 -2 -2 -3 -5 -4 -4 -5 -9 -10 -11 -12 -12 -12 -13
-13 -19 -9 -3 -8 -4 -3 -2 -3 -2 -2 -2 -2 -2 -2 -3 -4 -3 -2 -2 -2 -2 -3 -3 -4 -4 -4 -5 -5 -5 -3 -2 -2 -2 -2 -2 -2 -2 -2 -3 -3 -3 -4 -4 -5 -6 -9 -9 -10 -11 -12 -13 -14 -17
-21 -26 -25 -17 -10 -6 -3 -3 -3 -2 -2 -2 -2 -2 -3 -4 -6 -8 -7 -7 -7 -7 -5 -5 -6 -7 -7 -7 -7 -6 -4 -3 -2 -2 -2 -2 -2 -2 -3 -3 -3 -4 -5 -6 -6 -8 -9 -9 -9 -11 -15 -20 -21 -23
-27 -21 -15 -14 -7 -4 -3 -3 -2 -2 -2 -3 -4 -5 -4 -6 -8 -8 -9 -9 -8 -6 -6 -7 -8 -8 -8 -7 -7 -6 -5 -3 -3 -3 -4 -4 -4 -3 -4 -5 -5 -6 -6 -7 -8 -9 -9 -9 -10 -11 -12 -19 -25 -23
-29 -30 -28 -16 -7 -6 -6 -5 -4 -4 -4 -4 -5 -5 -4 -3 -5 -9 -11 -9 -8 -8 -7 -8 -9 -9 -9 -9 -8 -7 -7 -6 -5 -4 -4 -5 -6 -6 -7 -7 -7 -8 -9 -9 -9 -10 -11 -11 -12 -13 -18 -23 -22 -22
-23 -20 -15 -13 -12 -9 -7 -6 -7 -6 -7 -6 -7 -6 -5 -5 -4 -9 -7 -8 -9 -9 -9 -9 -10 -10 -10 -10 -9 -9 -8 -8 -8 -8 -8 -8 -8 -8 -8 -9 -9 -10 -10 -11 -11 -12 -12 -12 -14 -20 -23 -23 -24 -24
-16 -10 -6 -5 -6 -6 -6 -6 -6 -8 -8 -6 -7 -6 -5 -4 -8 -9 -8 -10 -10 -10 -10 -9 -10 -11 -11 -11 -11 -11 -10 -10 -10 -10 -10 -10 -10 -11 -11 -11 -11 -12 -12 -13 -13 -15 -19 -22 -24 -25 -26 -27 -25 -23
-10 -7 -7 -10 -7 -8 -11 -11 -9 -8 -8 -9 -10 -9 -7 -6 -9 -10 -10 -10 -12 -11 -11 -11 -11 -11 -12 -12 -12 -12 -11 -11 -11 -11 -12 -12 -12 -12 -12 -12 -13 -14 -18 -22 -24 -25 -26 -26 -27 -27 -26 -24 -22 -21
-7 -6 -8 -7 -7 -7 -7 -7 -6 -5 -8 -9 -7 -6 -5 -11 -13 -11 -10 -12 -12 -12 -12 -12 -12 -13 -13 -13 -13 -13 -13 -13 -12 -12 -13 -13 -13 -15 -16 -18 -19 -21 -24 -27 -27 -27 -27 -28 -27 -25 -23 -22 -21 -20
-7 -7 -6 -6 -6 -7 -7 -7 -7 -9 -11 -9 -9 -10 -11 -12 -12 -11 -12 -12 -13 -13 -13 -13 -13 -13 -14 -14 -14 -14 -17 -18 -17 -16 -16 -17 -18 -18 -19 -23 -25 -25 -25 -24 -23 -23 -22 -22 -22 -21 -21 -21 -21 -20
-7 -7 -7 -8 -8 -8 -10 -9 -12 -10 -10 -8 -7 -12 -14 -14 -13 -13 -13 -13 -13 -13 -13 -14 -14 -14 -15 -16 -17 -15 -14 -16 -17 -17 -17 -18 -19 -19 -21 -24 -24 -23 -21 -21 -21 -21 -21 -21 -20 -21 -21 -21 -21 -21
-8 -8 -7 -8 -8 -9 -7 -8 -8 -8 -9 -9 -11 -13 -13 -14 -15 -14 -14 -13 -14 -14 -14 -14 -15 -15 -15 -17 -21 -22 -22 -21 -20 -20 -22 -24 -24 -24 -23 -23 -22 -21 -21 -21 -20 -20 -21 -21 -21 -21 -22 -22 -22 -22
-8 -8 -8 -9 -12 -10 -8 -9 -10 -10 -10 -11 -14 -15 -15 -16 -15 -15 -14 -15 -15 -15 -15 -15 -15 -15 -15 -16 -19 -19 -20 -23 -25 -24 -23 -23 -22 -22 -22 -22 -22 -22 -21 -21 -21 -21 -21 -21 -22 -22 -22 -22 -23 -23
-8 -8 -8 -8 -8 -8 -9 -10 -9 -11 -11 -11 -12 -15 -16 -16 -16 -16 -16 -16 -16 -16 -16 -16 -18 -19 -18 -19 -22 -24 -23 -23 -24 -23 -23 -23 -23 -23 -23 -23 -22 -22 -21 -21 -21 -21 -21 -21 -22 -22 -23 -23 -23 -23
-9 -8 -8 -11 -8 -9 -9 -8 -9 -10 -11 -11 -13 -14 -14 -15 -17 -16 -17 -17 -17 -16 -17 -17 -17 -17 -17 -20 -22 -23 -23 -22 -22 -23 -23 -24 -24 -23 -23 -23 -23 -23 -23 -23 -22 -22 -22 -22 -22 -23 -23 -23 -24 -24
-8 -10 -11 -10 -9 -8 -10 -11 -8 -11 -12 -12 -13 -14 -15 -16 -17 -18 -18 -17 -17 -17 -17 -17 -18 -19 -20 -19 -20 -21 -23 -23 -24 -25 -25 -25 -25 -25 -24 -24 -24 -24 -24 -24 -23 -23 -23 -23 -23 -23 -23 -23 -24 -24

GFSWCAN_850_dewp_039.txt.gz
Dewpoint
-1 -1 -1 -1 -1 -2 -2 -4 -4 -4 -4 -5 -6 -7 -8 -5 -5 -0 -1 1 2 2 3 4 3 3 3 1 2 5 6 6 4 4 5 4 3 4 3 2 2 4 4 2 2 0 2 -2 -2 -4 -3 -1 -2 -2
-2 -2 -3 -4 -5 -5 -5 -4 -4 -5 -5 -6 -6 -6 -2 -1 -4 -1 -1 -0 2 2 2 4 4 4 3 2 1 4 4 5 5 5 5 4 4 1 3 5 2 2 2 3 3 2 -1 -1 -3 -3 -2 -2 -1 -1
-6 -6 -5 -4 -4 -5 -5 -5 -5 -5 -4 -4 -4 -3 -3 -3 -2 -2 -1 1 2 2 2 2 3 4 5 5 1 2 5 5 4 3 5 5 4 2 4 3 3 2 2 2 2 3 3 2 -0 -2 -2 -1 0 1
-4 -4 -3 -3 -3 -3 -3 -3 -3 -3 -3 -4 -5 -5 -5 -4 -3 -1 -1 1 1 2 3 3 6 6 6 7 3 2 2 4 5 5 5 4 3 2 2 2 3 2 2 3 4 4 3 2 1 1 1 2 2 3
-4 -4 -3 -2 -1 -1 -1 -1 -0 -1 -1 -2 -2 -4 -4 -4 -3 -1 1 1 1 1 4 4 3 6 8 6 6 2 4 4 6 4 1 3 4 4 3 2 2 2 2 3 3 3 1 2 2 1 1 2 2 2
-4 -2 -1 -1 -3 -6 -5 -2 -1 -1 -1 -0 -1 -2 -2 -1 -0 0 1 1 1 2 3 4 4 4 8 8 7 3 2 4 5 3 4 5 6 3 4 3 1 2 1 -0 1 2 2 2 1 1 1 1 0 -0
-5 -5 -2 -3 -4 -8 -8 -5 -1 -1 -0 -0 0 1 1 0 0 0 -1 -1 -0 2 2 3 3 5 8 8 8 7 7 6 6 6 5 4 5 2 1 2 2 3 3 1 1 2 1 1 1 1 1 -0 -0 -1
-8 -8 -4 -4 -5 -8 -7 -4 -3 -1 -1 -1 -1 -0 -0 -0 -1 -0 3 1 -2 0 2 3 3 5 6 7 6 8 7 6 6 6 5 3 5 2 4 2 3 3 2 2 2 2 1 1 1 0 0 -0 -1 -1
-9 -9 -8 -6 -6 -7 -7 -5 -3 -1 -1 -1 -1 -1 -0 -0 -2 0 4 3 2 3 3 3 4 5 5 5 6 6 6 4 5 3 3 4 3 5 3 2 2 2 2 1 2 2 1 1 0 -1 -1 -2 -3 -3
-4 -5 -7 -7 -7 -7 -7 -4 -3 -1 -2 -1 -0 0 0 -1 -4 2 3 2 4 4 4 3 4 5 4 3 2 3 4 3 5 4 4 3 3 1 2 2 2 2 2 2 0 -1 -0 -1 -1 -2 -3 -3 -4 -4
-2 -3 -4 -5 -6 -8 -8 -8 -3 -2 -1 -1 0 2 3 2 -0 0 2 2 3 2 3 4 4 4 4 3 3 3 3 2 5 4 4 3 4 1 2 2 2 1 2 2 2 1 0 -0 -2 -3 -3 -3 -4 -5
-2 -5 -5 -5 -7 -9 -12 -8 -3 -0 1 -1 3 3 3 2 2 1 1 1 2 3 2 2 3 4 4 4 2 2 3 1 5 2 4 5 2 1 2 1 1 1 1 1 1 1 -0 -1 -2 -3 -3 -4 -5 -12
1 0 -2 -3 -5 -6 -4 -3 0 1 1 4 2 1 2 0 2 3 3 2 2 0 2 3 2 3 2 2 0 -1 2 3 0 3 4 2 1 2 2 2 1 1 0 0 -1 -1 -1 -2 -2 -3 -4 -7 -13 -12
3 2 1 0 -0 -1 -2 -1 1 1 3 2 0 -0 0 0 -0 -0 1 1 -0 0 2 2 2 1 2 1 1 1 2 1 2 2 1 0 1 1 1 1 0 -0 -1 -1 -1 -1 -2 -2 -3 -5 -9 -13 -13 -15
4 4 3 2 1 0 1 2 2 2 1 -0 -1 -0 -0 -1 -1 -1 -1 -0 0 1 2 2 2 2 1 2 1 1 3 3 1 -1 0 -0 0 -0 -0 -0 -0 -1 -1 -1 -2 -2 -2 -4 -9 -10 -10 -12 -14 -16
4 4 4 3 3 3 1 1 -0 -2 -3 -2 -2 -1 -1 -1 -1 -1 -1 -1 0 1 1 1 -1 -1 2 1 2 2 2 1 0 -1 -1 -0 -0 -1 -1 -1 -1 -2 -1 -2 -2 -3 -6 -6 -5 -5 -9 -14 -15 -15
3 1 1 2 3 3 0 -3 -4 -3 -3 -3 -2 -2 -2 -2 -2 -2 -2 -2 0 1 1 -2 1 1 0 0 -0 -1 -1 -2 -2 -2 -1 -1 -1 -1 -1 -1 -2 -2 -2 -3 -5 -5 -4 -5 -6 -10 -13 -14 -14 -14
3 2 1 0 1 -0 -2 -3 -3 -3 -2 -2 -2 -3 -4 -4 -4 -4 -3 -2 -0 -0 -2 -2 -3 -3 -4 -3 -4 -5 -5 -3 -2 -2 -2 -2 -1 -1 -1 -2 -2 -3 -4 -4 -4 -5 -6 -8 -11 -12 -12 -12 -12 -12
-2 -1 -1 -4 1 2 -2 -3 -4 -2 -2 -2 -3 -3 -5 -5 -5 -5 -5 -3 -4 -4 -4 -5 -5 -5 -6 -7 -7 -7 -6 -4 -3 -3 -3 -2 -2 -2 -2 -2 -3 -3 -4 -4 -5 -6 -8 -10 -10 -11 -11 -12 -12 -13
-21 -14 -6 -5 -5 -5 -3 -3 -3 -3 -2 -2 -4 -7 -7 -7 -8 -8 -9 -8 -8 -7 -7 -7 -7 -8 -8 -9 -8 -8 -7 -4 -3 -3 -3 -3 -3 -3 -3 -3 -3 -4 -5 -5 -6 -6 -8 -9 -10 -10 -10 -11 -14 -17
-11 -8 -7 -7 -6 -4 -3 -3 -2 -2 -2 -2 -3 -4 -5 -10 -10 -10 -10 -10 -9 -7 -8 -9 -9 -10 -9 -9 -8 -8 -7 -5 -4 -4 -5 -6 -5 -4 -5 -5 -5 -6 -6 -8 -8 -9 -9 -10 -10 -11 -11 -11 -12 -15
-26 -26 -23 -13 -8 -7 -7 -6 -5 -5 -6 -6 -6 -6 -4 -5 -8 -9 -12 -10 -9 -9 -10 -10 -10 -10 -10 -10 -9 -8 -8 -7 -7 -7 -7 -7 -7 -8 -8 -8 -8 -9 -9 -10 -10 -10 -11 -11 -12 -12 -12 -13 -14 -15
-21 -19 -14 -12 -10 -8 -7 -7 -7 -8 -8 -6 -8 -7 -6 -5 -7 -12 -9 -10 -11 -11 -10 -11 -11 -11 -10 -10 -10 -9 -9 -9 -9 -9 -9 -9 -9 -9 -9 -10 -10 -10 -11 -12 -12 -12 -12 -13 -13 -13 -14 -17 -22 -22
-18 -11 -8 -7 -7 -8 -8 -7 -7 -7 -6 -9 -8 -6 -6 -5 -10 -10 -10 -12 -12 -11 -11 -11 -11 -11 -11 -11 -12 -12 -11 -11 -11 -11 -11 -11 -11 -12 -12 -12 -12 -13 -13 -13 -13 -14 -15 -17 -20 -23 -23 -25 -26 -25
-10 -8 -8 -11 -8 -9 -12 -13 -11 -9 -11 -11 -11 -7 -6 -8 -12 -12 -12 -12 -13 -12 -12 -12 -12 -12 -12 -13 -12 -12 -12 -12 -12 -12 -13 -13 -13 -13 -13 -14 -14 -16 -20 -23 -25 -27 -27 -27 -27 -27 -28 -27 -26 -24
-8 -6 -9 -8 -9 -10 -11 -10 -10 -9 -11 -9 -9 -7 -8 -14 -15 -13 -11 -13 -13 -13 -13 -13 -13 -13 -14 -14 -15 -15 -15 -15 -14 -15 -15 -16 -17 -19 -20 -22 -25 -25 -26 -25 -24 -24 -24 -23 -23 -22 -22 -22 -21 -21
-10 -10 -8 -7 -7 -7 -9 -8 -8 -11 -9 -8 -9 -14 -15 -15 -15 -12 -12 -13 -13 -13 -13 -14 -14 -14 -14 -14 -14 -14 -15 -16 -17 -16 -16 -17 -19 -21 -23 -25 -24 -23 -23 -23 -23 -23 -22 -22 -21 -21 -21 -21 -21 -21
-7 -8 -11 -9 -8 -8 -14 -13 -13 -11 -11 -8 -11 -15 -17 -17 -14 -14 -14 -14 -14 -14 -14 -14 -15 -16 -20 -19 -15 -15 -16 -19 -18 -20 -21 -21 -23 -24 -23 -23 -22 -22 -22 -21 -21 -21 -21 -21 -21 -21 -21 -21 -22 -22
-8 -8 -8 -10 -9 -8 -8 -10 -9 -9 -10 -9 -15 -15 -14 -16 -15 -15 -14 -14 -14 -14 -14 -15 -15 -15 -15 -17 -19 -20 -22 -24 -24 -24 -25 -24 -24 -24 -24 -24 -23 -23 -23 -22 -22 -21 -21 -21 -21 -21 -22 -22 -22 -23
-8 -8 -9 -9 -13 -11 -9 -10 -10 -11 -12 -14 -15 -16 -16 -16 -16 -15 -15 -15 -15 -15 -16 -16 -16 -16 -16 -18 -19 -21 -22 -23 -24 -25 -24 -24 -25 -24 -24 -25 -25 -24 -24 -23 -23 -22 -22 -21 -21 -22 -22 -22 -22 -23
-9 -8 -8 -9 -9 -9 -10 -11 -11 -12 -12 -14 -16 -17 -17 -17 -17 -17 -17 -16 -16 -16 -16 -16 -17 -18 -18 -19 -20 -22 -23 -23 -25 -25 -25 -25 -25 -25 -25 -25 -25 -25 -24 -24 -24 -24 -24 -23 -22 -22 -22 -23 -23 -23
-9 -9 -9 -13 -9 -9 -10 -11 -11 -12 -12 -13 -15 -16 -16 -17 -17 -17 -18 -17 -17 -17 -17 -17 -17 -17 -19 -20 -23 -24 -24 -25 -26 -27 -27 -27 -26 -25 -25 -25 -24 -24 -24 -24 -24 -24 -24 -23 -23 -23 -24 -24 -23 -24
-10 -11 -9 -9 -9 -9 -9 -9 -11 -12 -12 -13 -14 -15 -15 -17 -17 -18 -18 -18 -17 -18 -18 -18 -18 -19 -21 -23 -24 -25 -26 -27 -27 -26 -25 -25 -24 -24 -24 -23 -23 -23 -23 -23 -23 -24 -24 -24 -24 -24 -24 -24 -24 -24

GFSWCAN_850_dewp_042.txt.gz
Dewpoint
-0 0 -1 -1 -1 -1 1 1 -0 -0 -0 -1 -0 -1 -3 -3 -2 -2 -4 -1 -1 2 2 4 3 1 1 1 2 1 2 3 4 4 5 4 3 4 4 3 4 5 4 2 1 1 5 -3 -3 -2 -2 -5 -3 -2
-0 0 0 0 0 -0 -0 -0 -0 -0 -1 -1 -1 -1 -2 -3 -2 -2 -3 -3 -1 0 2 3 4 4 2 2 1 2 2 4 2 5 4 2 3 1 3 5 1 4 3 4 3 4 0 -2 -4 -5 -5 -3 -3 -3
-2 -1 -1 -1 -1 -1 -1 -1 -1 -1 -1 -1 -2 -3 -4 -4 -5 -6 -3 -4 -2 -0 1 1 2 3 4 4 2 1 2 5 4 1 3 4 4 2 4 3 3 1 0 2 2 1 2 1 -1 -2 -4 -3 -3 -3
-4 -4 -4 -4 -4 -3 -3 -2 -2 -2 -2 -2 -3 -3 -4 -6 -7 -4 -3 -1 -1 1 1 0 1 4 5 4 4 2 1 1 5 5 4 3 4 3 2 3 3 2 1 3 2 3 3 2 1 -1 -2 -2 -2 -1
-4 -4 -4 -4 -5 -5 -6 -6 -5 -5 -5 -5 -5 -5 -5 -5 -4 -3 -3 -3 -0 1 2 3 2 3 4 6 5 5 3 2 5 5 2 3 4 3 2 3 2 2 2 3 2 1 0 0 -0 -0 -0 0 1 0
-2 -2 -2 -2 -2 -3 -3 -4 -5 -6 -6 -6 -5 -4 -2 -2 -1 -2 -0 -2 -0 1 2 2 3 2 4 6 6 4 5 4 5 4 3 5 5 4 5 4 1 1 1 1 -0 0 0 -0 0 1 1 2 2 2
-1 -2 -3 -2 -1 -1 -1 -1 -1 -3 -3 -4 -4 -3 -4 -3 -2 -2 -1 -0 0 2 2 2 2 3 5 7 7 7 6 6 5 5 5 4 5 3 1 3 1 2 3 1 1 2 1 1 1 1 1 1 1 1
-3 -5 -6 -7 -4 -1 -1 -1 -1 -1 -1 -2 -3 -4 -4 -3 -4 -0 0 1 0 1 2 2 3 4 6 6 6 7 7 6 6 5 4 3 4 2 4 2 3 3 2 2 2 2 1 1 1 0 0 -0 -0 -1
-3 -4 -8 -8 -3 -1 -1 -0 -0 -1 -1 -1 -2 -2 -1 -0 -0 -2 -2 -0 0 -0 1 1 3 4 5 4 5 6 6 3 5 2 3 4 2 4 2 2 3 2 2 2 2 1 1 1 0 -0 -0 -1 -1 -2
-4 -4 -9 -8 -4 -2 -2 -1 -0 -0 -1 -1 -1 -0 -1 -1 -2 -1 1 1 2 2 4 2 4 5 4 3 3 3 3 3 5 4 4 3 4 2 2 2 3 2 2 2 1 -1 -1 -1 -0 -1 -1 -1 -1 -2
-8 -7 -9 -9 -5 -2 -2 -1 -1 -0 -0 -1 -1 0 -3 -2 1 1 1 1 2 2 3 3 4 4 4 2 3 3 2 2 5 4 3 3 4 2 2 2 3 3 2 2 1 1 1 0 -0 -1 -2 -1 -1 -2
-10 -10 -10 -10 -6 -2 -0 -1 0 0 -1 -0 2 0 1 0 0 1 1 0 1 3 2 2 3 4 4 4 2 2 3 2 5 2 4 5 2 1 2 2 2 1 1 1 1 1 0 -0 -1 -1 -1 -2 -3 -3
-8 -8 -7 -5 -5 -4 -1 -0 -1 1 -0 2 2 2 1 0 2 2 2 2 2 0 1 2 2 3 3 3 1 1 3 3 1 4 4 2 1 1 1 1 1 1 1 1 0 -0 -1 -1 -1 -1 -2 -3 -3 -6
-6 -6 -6 -5 -5 -4 -4 -2 -0 -0 0 0 -0 -0 -2 -2 -0 -0 0 1 -1 0 1 2 1 1 2 1 1 3 2 1 2 2 2 0 0 0 1 1 1 0 0 0 -0 -0 -0 -1 -2 -2 -2 -6 -11 -12
-3 -5 -5 -3 -2 -2 -2 -1 -1 -0 -1 -1 -1 -0 -1 -1 -1 -1 -1 -1 -0 1 1 1 1 2 1 1 1 2 3 2 1 1 -0 -1 -0 0 -0 -0 -0 -0 -0 -0 -1 -1 -2 -2 -3 -4 -8 -11 -13 -10
-0 -0 -0 -1 -1 -1 -1 -0 0 -1 -1 -2 -3 -2 -2 -1 -2 -2 -2 -2 -0 1 0 -0 -0 1 2 1 0 -0 1 -1 -1 -2 -2 -1 -1 -1 -1 -1 -1 -1 -1 -2 -2 -2 -3 -3 -7 -11 -12 -9 -9 -13
-2 -0 -0 -1 -0 -0 -0 -0 -2 -3 -3 -3 -3 -5 -4 -3 -4 -4 -4 -3 -0 0 0 -0 -3 -2 -2 -2 -3 -4 -4 -3 -5 -3 -2 -2 -1 -2 -2 -2 -2 -2 -2 -2 -3 -4 -6 -8 -6 -5 -6 -9 -14 -16
1 1 1 0 0 -1 -1 -2 -3 -3 -2 -3 -4 -5 -6 -6 -6 -6 -5 -3 -1 -2 -4 -3 -5 -6 -6 -5 -6 -7 -7 -7 -3 -3 -3 -3 -2 -2 -2 -2 -2 -2 -3 -4 -4 -5 -4 -5 -5 -6 -9 -14 -14 -13
0 -0 -0 0 0 -1 -3 -4 -4 -4 -4 -5 -6 -6 -7 -7 -8 -7 -6 -5 -6 -6 -6 -7 -7 -7 -7 -8 -8 -9 -9 -8 -6 -5 -4 -3 -3 -3 -3 -3 -3 -4 -4 -5 -5 -6 -6 -7 -8 -10 -12 -12 -12 -12
-4 -3 -1 -0 -1 -2 -3 -4 -4 -4 -3 -5 -9 -9 -10 -9 -10 -10 -10 -10 -10 -9 -8 -8 -9 -9 -10 -10 -10 -10 -10 -7 -5 -5 -6 -6 -5 -4 -4 -5 -5 -6 -6 -7 -7 -8 -8 -9 -9 -10 -10 -10 -11 -11
-7 -6 -6 -6 -6 -4 -3 -3 -2 -2 -3 -3 -4 -8 -9 -11 -11 -11 -12 -12 -12 -9 -10 -10 -10 -11 -11 -11 -10 -10 -9 -8 -8 -8 -9 -9 -8 -8 -8 -8 -8 -8 -8 -9 -9 -10 -10 -10 -11 -11 -11 -11 -12 -12
-14 -14 -13 -10 -9 -8 -8 -7 -5 -5 -6 -6 -6 -5 -5 -7 -8 -11 -13 -12 -11 -11 -11 -11 -12 -11 -11 -11 -10 -10 -10 -9 -9 -9 -8 -8 -9 -9 -9 -10 -9 -10 -10 -11 -11 -11 -12 -12 -12 -12 -13 -13 -13 -13
-21 -18 -14 -11 -9 -8 -7 -8 -8 -8 -9 -7 -8 -7 -7 -8 -9 -13 -11 -12 -12 -12 -12 -12 -12 -11 -11 -11 -11 -10 -10 -10 -10 -10 -11 -11 -11 -11 -11 -11 -11 -12 -12 -13 -13 -13 -13 -13 -13 -13 -14 -15 -17 -21
-16 -11 -9 -8 -8 -10 -8 -8 -7 -7 -7 -10 -9 -8 -7 -8 -12 -13 -12 -13 -13 -13 -12 -12 -12 -12 -12 -12 -12 -12 -12 -12 -12 -12 -12 -12 -13 -13 -13 -13 -13 -13 -14 -14 -16 -17 -20 -22 -25 -26 -26 -27 -27 -27
-10 -8 -9 -12 -9 -11 -14 -14 -11 -10 -12 -12 -10 -8 -8 -11 -14 -14 -13 -13 -14 -14 -13 -13 -13 -13 -14 -13 -13 -13 -13 -13 -13 -13 -14 -15 -16 -18 -20 -22 -23 -25 -25 -25 -26 -25 -25 -25 -24 -24 -23 -23 -22 -22
-8 -7 -8 -9 -10 -10 -12 -11 -9 -13 -13 -11 -11 -9 -12 -16 -16 -14 -12 -13 -14 -14 -14 -14 -14 -14 -14 -15 -16 -16 -17 -17 -18 -18 -18 -19 -20 -23 -24 -25 -24 -24 -24 -24 -24 -24 -24 -23 -23 -23 -22 -22 -21 -21
-10 -11 -9 -8 -8 -8 -11 -9 -10 -12 -10 -9 -12 -17 -18 -17 -16 -13 -13 -14 -14 -14 -14 -14 -16 -15 -15 -14 -15 -16 -16 -17 -19 -19 -20 -22 -24 -24 -24 -24 -24 -23 -23 -23 -23 -23 -22 -22 -21 -22 -21 -21 -22 -22
-8 -10 -12 -10 -9 -9 -16 -15 -13 -13 -12 -10 -14 -17 -19 -19 -16 -15 -15 -14 -14 -14 -14 -15 -16 -18 -20 -17 -16 -17 -22 -22 -21 -24 -24 -24 -24 -24 -25 -24 -24 -24 -24 -24 -24 -23 -22 -21 -21 -21 -21 -22 -22 -22
-8 -8 -10 -12 -10 -9 -10 -12 -11 -10 -11 -12 -18 -17 -16 -16 -16 -15 -15 -15 -15 -15 -15 -15 -16 -16 -16 -18 -18 -20 -23 -24 -24 -24 -25 -25 -26 -27 -27 -27 -27 -27 -26 -26 -25 -24 -24 -23 -23 -22 -22 -22 -22 -22
-8 -9 -10 -11 -14 -11 -11 -11 -13 -14 -14 -15 -16 -17 -17 -17 -16 -15 -15 -15 -15 -16 -16 -17 -17 -17 -18 -20 -20 -21 -22 -23 -25 -26 -27 -28 -27 -27 -27 -26 -26 -26 -25 -25 -25 -25 -24 -24 -24 -24 -23 -23 -23 -23
-8 -9 -10 -10 -10 -11 -11 -12 -14 -14 -16 -17 -17 -18 -18 -17 -17 -17 -17 -17 -17 -17 -17 -17 -17 -17 -17 -18 -20 -22 -23 -25 -28 -28 -28 -27 -26 -26 -25 -25 -24 -24 -24 -24 -23 -24 -24 -24 -24 -24 -24 -24 -24 -24
-9 -9 -10 -14 -10 -12 -13 -11 -12 -12 -13 -15 -16 -17 -17 -17 -18 -18 -18 -18 -18 -18 -17 -17 -17 -18 -19 -20 -23 -25 -27 -28 -27 -26 -25 -25 -25 -24 -24 -24 -24 -24 -24 -23 -23 -24 -24 -24 -24 -24 -24 -24 -24 -24
-11 -10 -10 -10 -10 -10 -11 -10 -12 -13 -13 -14 -15 -15 -16 -17 -18 -18 -18 -18 -18 -18 -19 -21 -21 -22 -24 -27 -27 -27 -27 -25 -25 -25 -25 -24 -24 -24 -24 -24 -24 -24 -24 -24 -24 -24 -24 -24 -24 -24 -24 -24 -24 -24

GFSWCAN_850_dewp_048.txt.gz
Dewpoint
0 -1 -1 -1 -1 -2 -1 -0 -0 -0 -0 0 -1 -2 0 -0 -1 -0 -0 -1 -1 -0 2 0 -1 -1 -2 -1 2 -2 2 3 4 5 5 5 7 2 2 1 5 5 6 8 6 9 8 -2 -3 -1 -1 0 -2 -1
0 -1 -1 -2 -2 -1 -1 -0 -1 -1 -1 -1 -1 0 -0 -1 -0 -0 0 0 0 1 1 1 2 2 1 -3 -2 -1 -3 -1 0 2 4 2 8 7 1 5 1 5 4 5 3 4 1 -2 -3 -3 -0 -2 -1 -2
0 -1 -1 -1 -2 -1 -1 -0 -0 -1 -1 -1 1 1 -0 -0 -0 -0 -0 0 -1 -1 -0 -0 -0 2 2 0 -0 0 -2 -2 -0 -1 3 4 8 5 9 5 2 2 2 5 4 -0 1 1 -1 -1 -1 -1 -1 -1
-1 0 -1 -1 -1 -1 -0 0 0 0 0 1 1 -0 -0 -0 -0 -1 -0 -1 -1 -0 -1 -2 -1 -0 2 2 3 0 -1 3 2 2 3 6 7 1 5 2 4 1 2 2 3 1 2 2 1 -0 0 -1 -3 -1
-1 -1 0 0 -0 0 1 1 1 1 1 0 -0 -0 0 -0 -1 -1 -2 -2 -3 -3 0 -0 -0 -1 2 3 2 3 3 2 5 5 4 4 2 4 4 4 5 1 2 5 4 0 2 -0 1 2 1 1 -1 0
-3 -1 -1 -0 -0 -0 0 0 -0 -0 -0 -0 -0 -1 -1 -1 -1 -2 -2 -3 -4 -6 -2 2 0 -1 -1 3 3 2 2 2 4 3 5 3 4 3 7 5 -0 0 1 1 1 0 1 1 -1 2 2 1 1 0
-4 -3 -1 -1 -0 -0 -0 -0 -0 -0 -0 -1 -0 -0 -1 -1 -1 -1 -3 -4 -5 -3 -1 1 2 2 -2 2 5 4 4 3 2 3 4 4 5 5 7 7 1 1 1 2 0 -0 0 -1 1 -1 1 -0 0 0
-3 -4 -4 -1 -1 -1 -1 -1 -1 -1 -1 -1 -1 -2 -2 -3 -5 -4 -2 -4 -5 -0 -1 2 2 3 3 3 5 5 5 5 5 4 4 4 4 5 6 2 2 2 2 3 2 1 2 1 -0 -0 0 -0 0 0
-1 -2 -5 -5 -2 -2 -1 -1 -1 -2 -3 -4 -4 -5 -6 -4 -1 -1 -1 -1 -2 -0 1 1 3 5 3 4 4 5 5 5 5 6 5 4 5 7 3 3 3 3 3 3 2 1 1 1 0 -0 0 0 -0 -1
-1 -1 -2 -4 -6 -6 -5 -3 -2 -3 -4 -4 -3 -3 -3 -2 -2 -1 -1 -0 -1 -0 1 2 2 3 4 3 4 4 3 4 5 6 5 7 5 3 3 2 3 3 2 2 1 1 1 0 0 -0 0 -0 -0 -1
-1 -1 -1 -1 -4 -6 -7 -6 -6 -5 -5 -2 -4 -2 -1 -5 -0 0 1 1 0 1 1 2 1 1 2 4 4 3 4 2 5 5 7 6 5 2 1 3 2 2 2 1 2 1 1 1 0 -0 -1 -1 -1 -1
-0 -1 -1 -1 -3 -5 -5 -4 -3 -2 -2 -2 -0 -2 -4 -2 1 1 1 1 1 3 2 3 3 2 3 4 3 2 5 2 5 3 5 4 2 -1 0 1 1 1 2 2 2 2 1 0 -0 -0 -1 -2 -2 -2
-1 -1 -1 -2 -3 -3 -3 -3 -3 -3 -4 -0 -3 0 1 0 1 2 3 3 3 0 0 2 2 3 3 2 2 3 5 5 2 3 3 1 -1 -1 -1 -1 0 1 1 0 -0 -0 -0 -1 -2 -1 -2 -2 -2 -3
-2 -0 -2 -1 -2 -2 -2 -2 -3 -2 -1 -1 -0 0 1 0 0 0 0 2 -1 -0 -0 1 1 2 1 2 2 5 2 3 4 3 1 -1 -3 -2 -2 -2 -1 -2 -2 -2 -3 -3 -3 -3 -3 -3 -3 -3 -3 -4
-3 -2 -1 -1 -1 -1 -2 -1 -2 -3 -3 -2 -3 -1 -2 -2 -3 -3 -3 -1 -2 -1 -0 -0 1 1 1 3 1 3 3 1 -1 -2 -2 -3 -4 -3 -3 -3 -3 -3 -3 -3 -4 -4 -4 -4 -3 -4 -4 -4 -4 -4
-7 -5 -4 -3 -3 -3 -2 -2 -3 -4 -3 -5 -7 -5 -6 -4 -5 -6 -5 -4 -3 -2 -0 -0 1 1 -1 -2 -3 -2 -2 -3 -4 -5 -5 -4 -4 -4 -4 -4 -4 -4 -4 -4 -4 -4 -4 -4 -4 -4 -4 -5 -5 -6
-5 -4 -6 -3 -1 -2 -1 -2 -3 -4 -4 -5 -5 -7 -7 -7 -7 -7 -7 -6 -4 -2 -1 -4 -4 -3 -4 -5 -5 -6 -6 -6 -7 -7 -7 -5 -5 -5 -5 -5 -5 -5 -5 -5 -5 -5 -5 -6 -6 -7 -9 -9 -8 -8
-1 -2 -2 -1 -2 -2 -2 -3 -4 -5 -6 -7 -7 -8 -8 -9 -8 -7 -7 -6 -3 -5 -6 -6 -9 -8 -6 -6 -7 -8 -9 -8 -7 -9 -9 -8 -7 -6 -6 -7 -7 -6 -6 -7 -7 -7 -7 -7 -8 -8 -8 -9 -9 -10
-2 -1 -1 -1 -1 -2 -2 -4 -7 -7 -7 -7 -8 -8 -8 -9 -10 -9 -9 -9 -9 -9 -9 -10 -9 -9 -9 -10 -10 -9 -9 -9 -8 -10 -10 -9 -8 -8 -8 -7 -7 -7 -7 -8 -8 -9 -9 -9 -10 -10 -10 -10 -10 -11
-1 -1 -1 -1 -2 -3 -3 -4 -7 -7 -7 -9 -9 -10 -11 -11 -11 -11 -11 -11 -11 -12 -11 -11 -10 -11 -11 -11 -10 -11 -11 -9 -8 -9 -11 -11 -10 -9 -9 -9 -9 -9 -9 -9 -10 -10 -10 -11 -11 -11 -11 -11 -11 -12
-1 -1 -1 -2 -5 -5 -4 -3 -3 -4 -4 -5 -5 -9 -10 -11 -11 -12 -12 -13 -12 -12 -11 -11 -11 -11 -12 -12 -12 -12 -12 -11 -12 -11 -11 -12 -12 -11 -11 -11 -10 -11 -11 -11 -12 -12 -12 -12 -13 -12 -12 -12 -13 -13
-4 -8 -9 -9 -9 -9 -8 -7 -5 -6 -6 -6 -6 -8 -9 -10 -11 -12 -14 -13 -13 -12 -12 -12 -12 -12 -12 -13 -13 -13 -13 -12 -12 -12 -12 -12 -12 -12 -13 -13 -12 -12 -13 -13 -13 -13 -13 -13 -14 -15 -15 -17 -19 -21
-11 -12 -13 -12 -10 -10 -8 -8 -6 -7 -6 -6 -7 -8 -9 -10 -12 -13 -13 -14 -13 -13 -12 -12 -13 -13 -13 -14 -13 -13 -13 -13 -13 -14 -13 -14 -14 -15 -16 -17 -18 -20 -22 -23 -24 -25 -25 -25 -26 -26 -26 -25 -25 -25
-13 -12 -11 -10 -9 -7 -9 -7 -7 -7 -7 -7 -7 -7 -9 -11 -12 -13 -13 -14 -13 -13 -13 -13 -13 -13 -13 -13 -14 -14 -14 -16 -17 -18 -17 -19 -22 -22 -23 -23 -24 -24 -24 -25 -25 -26 -26 -27 -27 -27 -27 -26 -26 -24
-11 -8 -9 -7 -8 -8 -7 -7 -7 -7 -6 -7 -8 -8 -10 -12 -12 -12 -13 -13 -13 -14 -14 -14 -14 -14 -14 -14 -15 -18 -19 -19 -20 -21 -22 -22 -19 -19 -22 -24 -24 -26 -26 -26 -26 -26 -27 -27 -26 -25 -24 -24 -24 -23
-7 -8 -7 -7 -7 -7 -7 -7 -8 -8 -8 -8 -9 -11 -12 -12 -12 -12 -14 -13 -14 -14 -15 -14 -14 -15 -15 -15 -15 -16 -19 -21 -22 -23 -23 -24 -24 -25 -25 -25 -21 -28 -29 -28 -28 -26 -25 -26 -25 -25 -22 -22 -24 -24
-8 -8 -9 -9 -9 -9 -9 -10 -10 -10 -9 -9 -10 -12 -13 -12 -12 -14 -14 -14 -15 -16 -17 -16 -15 -15 -16 -17 -19 -20 -22 -23 -23 -23 -24 -25 -27 -29 -29 -29 -28 -27 -27 -26 -26 -26 -26 -25 -25 -25 -24 -23 -23 -24
-9 -10 -10 -11 -11 -11 -11 -11 -11 -10 -11 -12 -14 -14 -14 -14 -14 -14 -15 -15 -15 -16 -16 -17 -18 -17 -18 -20 -20 -21 -22 -22 -23 -24 -26 -28 -29 -28 -27 -27 -26 -26 -25 -25 -25 -25 -24 -24 -24 -24 -24 -24 -24 -24
-10 -12 -12 -13 -12 -12 -12 -11 -11 -12 -14 -14 -14 -15 -16 -17 -18 -16 -17 -16 -15 -16 -16 -16 -17 -18 -19 -20 -21 -21 -22 -23 -26 -28 -29 -27 -24 -25 -26 -25 -25 -25 -25 -25 -24 -24 -24 -24 -24 -24 -25 -25 -25 -25
-11 -12 -12 -13 -13 -12 -14 -15 -14 -16 -16 -16 -16 -17 -17 -18 -17 -16 -16 -16 -16 -16 -17 -17 -17 -19 -20 -19 -19 -20 -22 -26 -29 -28 -27 -26 -25 -25 -25 -25 -25 -25 -25 -25 -25 -25 -25 -25 -25 -25 -25 -25 -25 -25
-12 -11 -11 -12 -13 -14 -16 -17 -17 -17 -17 -17 -17 -17 -17 -18 -17 -17 -16 -17 -17 -17 -17 -17 -18 -17 -17 -19 -20 -23 -27 -28 -27 -26 -26 -26 -25 -25 -25 -25 -25 -25 -25 -25 -25 -25 -25 -26 -26 -26 -26 -26 -25 -25
-12 -12 -12 -12 -13 -14 -13 -14 -14 -14 -16 -15 -17 -18 -18 -17 -17 -17 -17 -17 -18 -17 -17 -17 -18 -18 -20 -23 -27 -28 -27 -26 -26 -26 -26 -26 -26 -26 -26 -25 -25 -25 -25 -25 -25 -26 -26 -26 -26 -26 -26 -26 -26 -26
-12 -12 -12 -12 -13 -13 -13 -13 -13 -14 -15 -15 -16 -17 -17 -16 -17 -18 -18 -18 -18 -18 -19 -24 -25 -26 -28 -28 -27 -26 -26 -26 -26 -26 -27 -28 -28 -27 -26 -26 -25 -25 -25 -25 -25 -26 -26 -26 -26 -26 -26 -26 -26 -26